Time,TemperatureF,DewpointF,PressureIn,WindDirection,WindDirectionDegrees,WindSpeedMPH,WindSpeedGustMPH,Humidity,HourlyPrecipIn,Conditions,Clouds,dailyrainin,SoftwareType,DateUTC
2013-02-23 00:00:00,33.1,32.3,29.87,SW,236,1.0,4.0,97,0.00,,---,0.00,VWS V14.00,2013-02-23 05:00:00,
2013-02-23 00:01:00,33.1,32.3,29.87,SW,236,2.0,4.0,97,0.00,,---,0.00,VWS V14.00,2013-02-23 05:01:00,
2013-02-23 00:02:00,33.1,32.3,29.87,SW,229,1.0,4.0,97,0.00,,---,0.00,VWS V14.00,2013-02-23 05:02:00,
2013-02-23 00:05:00,33.1,32.3,29.87,SW,219,0.0,4.0,97,0.00,,---,0.00,VWS V14.00,2013-02-23 05:05:00,
2013-02-23 00:07:00,33.1,32.3,29.87,SW,229,2.0,4.0,97,0.00,,---,0.00,VWS V14.00,2013-02-23 05:07:00,
2013-02-23 00:09:00,33.1,32.3,29.87,SW,229,3.0,4.0,97,0.00,,---,0.00,VWS V14.00,2013-02-23 05:09:00,
2013-02-23 00:11:00,33.1,32.3,29.87,SW,231,2.0,4.0,97,0.00,,---,0.00,VWS V14.00,2013-02-23 05:11:00,
2013-02-23 00:13:00,33.1,32.3,29.87,West,268,3.0,5.0,97,0.00,,---,0.00,VWS V14.00,2013-02-23 05:13:00,
2013-02-23 00:14:00,33.1,32.3,29.87,West,268,0.0,5.0,94,0.00,,---,0.00,VWS V14.00,2013-02-23 05:14:00,
2013-02-23 00:16:00,34.4,32.9,29.87,West,262,3.0,5.0,94,0.00,,---,0.00,VWS V14.00,2013-02-23 05:16:00,
2013-02-23 00:17:00,34.4,32.9,29.87,West,261,2.0,5.0,94,0.00,,---,0.00,VWS V14.00,2013-02-23 05:17:00,
2013-02-23 00:18:00,30.4,28.6,29.87,West,261,1.0,5.0,93,0.00,,---,0.00,VWS V14.00,2013-02-23 05:18:00,
2013-02-23 00:19:00,30.4,28.6,29.87,West,260,0.0,5.0,93,0.00,,---,0.00,VWS V14.00,2013-02-23 05:19:00,
2013-02-23 00:24:00,30.4,28.6,29.87,WSW,249,2.0,5.0,93,0.00,,---,0.00,VWS V14.00,2013-02-23 05:24:00,
2013-02-23 00:25:00,30.4,28.6,29.87,WSW,252,3.0,5.0,93,0.00,,---,0.00,VWS V14.00,2013-02-23 05:25:00,
2013-02-23 00:26:00,30.4,28.6,29.87,WSW,257,0.0,5.0,93,0.00,,---,0.00,VWS V14.00,2013-02-23 05:26:00,
2013-02-23 00:28:00,30.4,28.6,29.87,WSW,257,0.0,5.0,93,0.00,,---,0.00,VWS V14.00,2013-02-23 05:28:00,
2013-02-23 00:30:00,30.4,28.6,29.87,WSW,257,1.0,4.0,93,0.00,,---,0.00,VWS V14.00,2013-02-23 05:30:00,
2013-02-23 00:31:00,30.4,28.6,29.87,WSW,257,0.0,4.0,93,0.00,,---,0.00,VWS V14.00,2013-02-23 05:31:00,
2013-02-23 00:33:00,30.4,28.4,29.87,SW,229,1.0,6.0,92,0.00,,---,0.00,VWS V14.00,2013-02-23 05:33:00,
2013-02-23 00:34:00,30.4,28.4,29.88,SW,229,1.0,6.0,92,0.00,,---,0.00,VWS V14.00,2013-02-23 05:34:00,
2013-02-23 00:35:00,30.4,28.4,29.88,SW,229,0.0,6.0,92,0.00,,---,0.00,VWS V14.00,2013-02-23 05:35:00,
2013-02-23 00:36:00,30.4,28.4,29.87,WSW,237,3.0,6.0,92,0.00,,---,0.00,VWS V14.00,2013-02-23 05:36:00,
2013-02-23 00:38:00,30.4,28.4,29.87,WSW,249,1.0,6.0,92,0.00,,---,0.00,VWS V14.00,2013-02-23 05:38:00,
2013-02-23 00:41:00,30.3,28.3,29.87,WSW,254,0.0,6.0,92,0.00,,---,0.00,VWS V14.00,2013-02-23 05:41:00,
2013-02-23 00:42:00,30.3,28.3,29.87,WSW,254,1.0,6.0,92,0.00,,---,0.00,VWS V14.00,2013-02-23 05:42:00,
2013-02-23 00:44:00,30.3,28.0,29.87,WSW,254,2.0,6.0,91,0.00,,---,0.00,VWS V14.00,2013-02-23 05:44:00,
2013-02-23 00:46:00,30.3,28.0,29.87,WSW,254,1.0,6.0,91,0.00,,---,0.00,VWS V14.00,2013-02-23 05:46:00,
2013-02-23 00:47:00,30.3,28.0,29.87,WSW,254,1.0,6.0,91,0.00,,---,0.00,VWS V14.00,2013-02-23 05:47:00,
2013-02-23 00:48:00,30.3,28.0,29.87,WSW,254,1.0,6.0,91,0.00,,---,0.00,VWS V14.00,2013-02-23 05:48:00,
2013-02-23 00:49:00,30.3,28.0,29.87,WSW,254,0.0,6.0,91,0.00,,---,0.00,VWS V14.00,2013-02-23 05:49:00,
2013-02-23 00:51:00,30.3,28.0,29.88,WSW,254,2.0,6.0,91,0.00,,---,0.00,VWS V14.00,2013-02-23 05:51:00,
2013-02-23 00:53:00,30.3,27.7,29.87,WSW,254,1.0,6.0,90,0.00,,---,0.00,VWS V14.00,2013-02-23 05:53:00,
2013-02-23 00:54:00,30.3,27.7,29.88,WSW,254,1.0,6.0,90,0.00,,---,0.00,VWS V14.00,2013-02-23 05:54:00,
2013-02-23 00:58:00,30.3,27.7,29.87,WSW,254,0.0,1.0,90,0.00,,---,0.00,VWS V14.00,2013-02-23 05:58:00,
2013-02-23 00:59:00,30.3,27.7,29.87,WSW,254,1.0,2.0,90,0.00,,---,0.00,VWS V14.00,2013-02-23 05:59:00,
2013-02-23 01:00:00,30.2,27.6,29.87,WSW,253,1.0,3.0,90,0.00,,---,0.00,VWS V14.00,2013-02-23 06:00:00,
2013-02-23 01:04:00,30.2,27.6,29.87,WSW,254,1.0,4.0,90,0.00,,---,0.00,VWS V14.00,2013-02-23 06:04:00,
2013-02-23 01:05:00,30.2,27.6,29.87,WSW,254,1.0,4.0,90,0.00,,---,0.00,VWS V14.00,2013-02-23 06:05:00,
2013-02-23 01:06:00,30.2,27.6,29.87,WSW,254,0.0,4.0,90,0.00,,---,0.00,VWS V14.00,2013-02-23 06:06:00,
2013-02-23 01:07:00,30.2,27.6,29.87,WSW,254,1.0,4.0,90,0.00,,---,0.00,VWS V14.00,2013-02-23 06:07:00,
2013-02-23 01:10:00,30.2,27.6,29.87,WSW,254,0.0,4.0,90,0.00,,---,0.00,VWS V14.00,2013-02-23 06:10:00,
2013-02-23 01:11:00,30.2,27.4,29.87,WSW,254,1.0,4.0,89,0.00,,---,0.00,VWS V14.00,2013-02-23 06:11:00,
2013-02-23 01:12:00,30.2,27.4,29.87,WSW,254,1.0,4.0,89,0.00,,---,0.00,VWS V14.00,2013-02-23 06:12:00,
2013-02-23 01:16:00,30.2,27.4,29.87,West,261,1.0,7.0,89,0.00,,---,0.00,VWS V14.00,2013-02-23 06:16:00,
2013-02-23 01:18:00,30.2,27.4,29.87,West,261,2.0,7.0,89,0.00,,---,0.00,VWS V14.00,2013-02-23 06:18:00,
2013-02-23 01:19:00,30.2,27.4,29.87,West,261,1.0,7.0,89,0.00,,---,0.00,VWS V14.00,2013-02-23 06:19:00,
2013-02-23 01:22:00,30.2,27.4,29.87,West,261,0.0,7.0,89,0.00,,---,0.00,VWS V14.00,2013-02-23 06:22:00,
2013-02-23 01:24:00,30.2,27.1,29.87,West,261,0.0,7.0,88,0.00,,---,0.00,VWS V14.00,2013-02-23 06:24:00,
2013-02-23 01:25:00,30.2,27.1,29.87,West,261,1.0,7.0,88,0.00,,---,0.00,VWS V14.00,2013-02-23 06:25:00,
2013-02-23 01:26:00,30.1,27.0,29.87,WSW,251,0.0,7.0,88,0.00,,---,0.00,VWS V14.00,2013-02-23 06:26:00,
2013-02-23 01:27:00,30.1,27.0,29.87,SW,236,3.0,7.0,88,0.00,,---,0.00,VWS V14.00,2013-02-23 06:27:00,
2013-02-23 01:29:00,30.1,27.0,29.87,WSW,250,2.0,7.0,88,0.00,,---,0.00,VWS V14.00,2013-02-23 06:29:00,
2013-02-23 01:30:00,30.1,27.0,29.87,WSW,248,1.0,7.0,88,0.00,,---,0.00,VWS V14.00,2013-02-23 06:30:00,
2013-02-23 01:32:00,30.2,27.1,29.87,WSW,244,1.0,7.0,88,0.00,,---,0.00,VWS V14.00,2013-02-23 06:32:00,
2013-02-23 01:33:00,30.2,27.1,29.87,WSW,244,1.0,7.0,88,0.00,,---,0.00,VWS V14.00,2013-02-23 06:33:00,
2013-02-23 01:35:00,30.1,27.0,29.87,WSW,237,3.0,7.0,88,0.00,,---,0.00,VWS V14.00,2013-02-23 06:35:00,
2013-02-23 01:36:00,30.1,27.0,29.87,SW,222,2.0,7.0,88,0.00,,---,0.00,VWS V14.00,2013-02-23 06:36:00,
2013-02-23 01:37:00,30.1,26.7,29.87,WSW,246,3.0,7.0,87,0.00,,---,0.00,VWS V14.00,2013-02-23 06:37:00,
2013-02-23 01:38:00,30.1,26.7,29.87,SW,234,3.0,7.0,87,0.00,,---,0.00,VWS V14.00,2013-02-23 06:38:00,
2013-02-23 01:41:00,30.1,26.7,29.87,WSW,240,1.0,7.0,87,0.00,,---,0.00,VWS V14.00,2013-02-23 06:41:00,
2013-02-23 01:42:00,30.1,26.7,29.87,SW,232,1.0,7.0,87,0.00,,---,0.00,VWS V14.00,2013-02-23 06:42:00,
2013-02-23 01:43:00,30.1,26.7,29.87,SW,232,1.0,7.0,87,0.00,,---,0.00,VWS V14.00,2013-02-23 06:43:00,
2013-02-23 01:44:00,30.1,26.7,29.87,West,265,6.0,7.0,87,0.00,,---,0.00,VWS V14.00,2013-02-23 06:44:00,
2013-02-23 01:47:00,30.1,26.7,29.87,WSW,244,5.0,7.0,87,0.00,,---,0.00,VWS V14.00,2013-02-23 06:47:00,
2013-02-23 01:49:00,30.1,26.7,29.87,WSW,242,2.0,7.0,87,0.00,,---,0.00,VWS V14.00,2013-02-23 06:49:00,
2013-02-23 01:50:00,30.1,26.7,29.87,WSW,249,2.0,7.0,87,0.00,,---,0.00,VWS V14.00,2013-02-23 06:50:00,
2013-02-23 01:54:00,30.1,26.4,29.87,SW,219,2.0,9.0,86,0.00,,---,0.00,VWS V14.00,2013-02-23 06:54:00,
2013-02-23 01:55:00,30.1,26.4,29.87,WSW,253,7.0,12.0,86,0.00,,---,0.00,VWS V14.00,2013-02-23 06:55:00,
2013-02-23 01:56:00,30.1,26.4,29.87,West,259,1.0,12.0,86,0.00,,---,0.00,VWS V14.00,2013-02-23 06:56:00,
2013-02-23 01:57:00,30.1,26.4,29.87,SW,236,12.0,12.0,86,0.00,,---,0.00,VWS V14.00,2013-02-23 06:57:00,
2013-02-23 01:59:00,30.1,26.4,29.87,WSW,248,2.0,5.0,86,0.00,,---,0.00,VWS V14.00,2013-02-23 06:59:00,
2013-02-23 02:00:00,30.1,26.4,29.87,WSW,238,4.0,7.0,86,0.00,,---,0.00,VWS V14.00,2013-02-23 07:00:00,
2013-02-23 02:01:00,30.1,26.4,29.87,WSW,242,5.0,10.0,86,0.00,,---,0.00,VWS V14.00,2013-02-23 07:01:00,
2013-02-23 02:03:00,30.1,26.4,29.87,SW,234,0.0,10.0,86,0.00,,---,0.00,VWS V14.00,2013-02-23 07:03:00,
2013-02-23 02:05:00,30.1,26.4,29.87,SW,225,4.0,10.0,86,0.00,,---,0.00,VWS V14.00,2013-02-23 07:05:00,
2013-02-23 02:06:00,30.0,26.3,29.87,SW,236,2.0,10.0,86,0.00,,---,0.00,VWS V14.00,2013-02-23 07:06:00,
2013-02-23 02:10:00,30.0,26.3,29.87,SW,233,4.0,10.0,86,0.00,,---,0.00,VWS V14.00,2013-02-23 07:10:00,
2013-02-23 02:11:00,30.0,26.3,29.87,SW,217,3.0,10.0,86,0.00,,---,0.00,VWS V14.00,2013-02-23 07:11:00,
2013-02-23 02:12:00,30.0,26.3,29.87,SW,226,3.0,10.0,86,0.00,,---,0.00,VWS V14.00,2013-02-23 07:12:00,
2013-02-23 02:16:00,30.0,26.3,29.87,SW,231,3.0,10.0,86,0.00,,---,0.00,VWS V14.00,2013-02-23 07:16:00,
2013-02-23 02:17:00,30.0,26.3,29.87,WSW,252,2.0,10.0,86,0.00,,---,0.00,VWS V14.00,2013-02-23 07:17:00,
2013-02-23 02:18:00,30.0,26.3,29.87,SSW,193,6.0,10.0,86,0.00,,---,0.00,VWS V14.00,2013-02-23 07:18:00,
2013-02-23 02:21:00,30.0,26.3,29.87,SW,219,3.0,10.0,86,0.00,,---,0.00,VWS V14.00,2013-02-23 07:21:00,
2013-02-23 02:22:00,29.9,26.2,29.87,WSW,254,2.0,10.0,86,0.00,,---,0.00,VWS V14.00,2013-02-23 07:22:00,
2013-02-23 02:23:00,30.0,26.3,29.86,WSW,246,2.0,10.0,86,0.00,,---,0.00,VWS V14.00,2013-02-23 07:23:00,
2013-02-23 02:27:00,29.9,26.2,29.86,West,263,1.0,10.0,86,0.00,,---,0.00,VWS V14.00,2013-02-23 07:27:00,
2013-02-23 02:28:00,29.9,26.2,29.86,SW,227,4.0,4.0,86,0.00,,---,0.00,VWS V14.00,2013-02-23 07:28:00,
2013-02-23 02:29:00,29.9,26.2,29.86,WSW,252,1.0,8.0,86,0.00,,---,0.00,VWS V14.00,2013-02-23 07:29:00,
2013-02-23 02:30:00,29.9,26.2,29.86,WSW,248,3.0,8.0,86,0.00,,---,0.00,VWS V14.00,2013-02-23 07:30:00,
2013-02-23 02:33:00,29.9,26.2,29.86,SW,232,4.0,8.0,86,0.00,,---,0.00,VWS V14.00,2013-02-23 07:33:00,
2013-02-23 02:34:00,29.9,26.2,29.86,SW,233,0.0,8.0,86,0.00,,---,0.00,VWS V14.00,2013-02-23 07:34:00,
2013-02-23 02:37:00,29.9,26.2,29.86,SSW,211,2.0,8.0,86,0.00,,---,0.00,VWS V14.00,2013-02-23 07:37:00,
2013-02-23 02:39:00,29.9,26.2,29.86,WSW,241,3.0,8.0,86,0.00,,---,0.00,VWS V14.00,2013-02-23 07:39:00,
2013-02-23 02:40:00,30.0,26.3,29.86,WSW,244,1.0,9.0,86,0.00,,---,0.00,VWS V14.00,2013-02-23 07:40:00,
2013-02-23 02:44:00,29.9,26.2,29.87,SW,221,1.0,9.0,86,0.00,,---,0.00,VWS V14.00,2013-02-23 07:44:00,
2013-02-23 02:45:00,29.9,26.2,29.87,WSW,254,3.0,9.0,86,0.00,,---,0.00,VWS V14.00,2013-02-23 07:45:00,
2013-02-23 02:47:00,29.9,26.2,29.87,SW,229,0.0,9.0,86,0.00,,---,0.00,VWS V14.00,2013-02-23 07:47:00,
2013-02-23 02:50:00,29.8,26.1,29.87,WSW,244,1.0,9.0,86,0.00,,---,0.00,VWS V14.00,2013-02-23 07:50:00,
2013-02-23 02:52:00,29.8,26.1,29.86,SW,235,0.0,9.0,86,0.00,,---,0.00,VWS V14.00,2013-02-23 07:52:00,
2013-02-23 02:56:00,29.8,26.1,29.86,SW,234,2.0,9.0,86,0.00,,---,0.00,VWS V14.00,2013-02-23 07:56:00,
2013-02-23 02:58:00,29.8,26.1,29.86,WSW,238,5.0,9.0,86,0.00,,---,0.00,VWS V14.00,2013-02-23 07:58:00,
2013-02-23 03:02:00,29.8,26.1,29.86,SW,225,3.0,6.0,86,0.00,,---,0.00,VWS V14.00,2013-02-23 08:02:00,
2013-02-23 03:03:00,29.8,26.1,29.86,SW,225,2.0,6.0,86,0.00,,---,0.00,VWS V14.00,2013-02-23 08:03:00,
2013-02-23 03:05:00,29.7,26.0,29.86,SSW,209,1.0,6.0,86,0.00,,---,0.00,VWS V14.00,2013-02-23 08:05:00,
2013-02-23 03:07:00,29.7,26.0,29.86,SW,236,2.0,6.0,86,0.00,,---,0.00,VWS V14.00,2013-02-23 08:07:00,
2013-02-23 03:08:00,29.7,26.0,29.86,SW,223,1.0,6.0,86,0.00,,---,0.00,VWS V14.00,2013-02-23 08:08:00,
2013-02-23 03:09:00,29.7,26.0,29.86,WSW,250,7.0,7.0,86,0.00,,---,0.00,VWS V14.00,2013-02-23 08:09:00,
2013-02-23 03:13:00,29.7,26.0,29.86,WSW,250,1.0,7.0,86,0.00,,---,0.00,VWS V14.00,2013-02-23 08:13:00,
2013-02-23 03:14:00,29.7,26.0,29.86,SW,234,2.0,7.0,86,0.00,,---,0.00,VWS V14.00,2013-02-23 08:14:00,
2013-02-23 03:15:00,29.7,26.0,29.86,SW,234,1.0,7.0,86,0.00,,---,0.00,VWS V14.00,2013-02-23 08:15:00,
2013-02-23 03:19:00,29.6,25.9,29.86,WSW,248,0.0,7.0,86,0.00,,---,0.00,VWS V14.00,2013-02-23 08:19:00,
2013-02-23 03:20:00,29.6,25.9,29.86,WSW,250,1.0,7.0,86,0.00,,---,0.00,VWS V14.00,2013-02-23 08:20:00,
2013-02-23 03:21:00,29.7,26.0,29.86,SW,236,2.0,7.0,86,0.00,,---,0.00,VWS V14.00,2013-02-23 08:21:00,
2013-02-23 03:22:00,29.7,26.0,29.86,SW,234,2.0,7.0,86,0.00,,---,0.00,VWS V14.00,2013-02-23 08:22:00,
2013-02-23 03:24:00,29.6,25.9,29.86,SSW,209,2.0,7.0,86,0.00,,---,0.00,VWS V14.00,2013-02-23 08:24:00,
2013-02-23 03:28:00,29.6,25.9,29.86,WSW,244,3.0,9.0,86,0.00,,---,0.00,VWS V14.00,2013-02-23 08:28:00,
2013-02-23 03:33:00,29.5,25.8,29.86,WSW,252,2.0,9.0,86,0.00,,---,0.00,VWS V14.00,2013-02-23 08:33:00,
2013-02-23 03:34:00,29.5,25.8,29.86,SW,226,6.0,9.0,86,0.00,,---,0.00,VWS V14.00,2013-02-23 08:34:00,
2013-02-23 03:35:00,29.5,25.8,29.86,SW,230,3.0,10.0,86,0.00,,---,0.00,VWS V14.00,2013-02-23 08:35:00,
2013-02-23 03:38:00,29.5,25.8,29.85,West,273,2.0,11.0,86,0.00,,---,0.00,VWS V14.00,2013-02-23 08:38:00,
2013-02-23 03:39:00,29.5,25.8,29.85,SSW,213,2.0,11.0,86,0.00,,---,0.00,VWS V14.00,2013-02-23 08:39:00,
2013-02-23 03:40:00,29.5,25.8,29.86,SW,234,5.0,11.0,86,0.00,,---,0.00,VWS V14.00,2013-02-23 08:40:00,
2013-02-23 03:41:00,29.5,25.8,29.86,SW,232,6.0,11.0,86,0.00,,---,0.00,VWS V14.00,2013-02-23 08:41:00,
2013-02-23 03:44:00,29.5,25.8,29.85,SW,234,4.0,11.0,86,0.00,,---,0.00,VWS V14.00,2013-02-23 08:44:00,
2013-02-23 03:45:00,29.5,25.8,29.86,SW,227,3.0,11.0,86,0.00,,---,0.00,VWS V14.00,2013-02-23 08:45:00,
2013-02-23 03:46:00,29.4,25.7,29.86,SSW,209,6.0,11.0,86,0.00,,---,0.00,VWS V14.00,2013-02-23 08:46:00,
2013-02-23 03:47:00,29.4,25.7,29.86,WSW,239,2.0,11.0,86,0.00,,---,0.00,VWS V14.00,2013-02-23 08:47:00,
2013-02-23 03:49:00,29.4,25.7,29.86,WSW,255,3.0,11.0,86,0.00,,---,0.00,VWS V14.00,2013-02-23 08:49:00,
2013-02-23 03:51:00,29.4,25.7,29.86,WSW,242,3.0,11.0,86,0.00,,---,0.00,VWS V14.00,2013-02-23 08:51:00,
2013-02-23 03:52:00,29.4,25.7,29.86,West,261,1.0,11.0,86,0.00,,---,0.00,VWS V14.00,2013-02-23 08:52:00,
2013-02-23 03:53:00,29.4,25.7,29.86,SW,230,2.0,11.0,86,0.00,,---,0.00,VWS V14.00,2013-02-23 08:53:00,
2013-02-23 03:55:00,29.4,25.7,29.86,SW,217,6.0,12.0,86,0.00,,---,0.00,VWS V14.00,2013-02-23 08:55:00,
2013-02-23 03:58:00,29.4,25.7,29.85,WSW,257,2.0,12.0,86,0.00,,---,0.00,VWS V14.00,2013-02-23 08:58:00,
2013-02-23 03:59:00,29.3,25.6,29.85,WSW,246,2.0,3.0,86,0.00,,---,0.00,VWS V14.00,2013-02-23 08:59:00,
2013-02-23 04:01:00,29.3,25.6,29.85,SW,236,3.0,10.0,86,0.00,,---,0.00,VWS V14.00,2013-02-23 09:01:00,
2013-02-23 04:04:00,29.3,25.6,29.85,West,266,7.0,11.0,86,0.00,,---,0.00,VWS V14.00,2013-02-23 09:04:00,
2013-02-23 04:05:00,29.3,25.6,29.85,SW,232,5.0,12.0,86,0.00,,---,0.00,VWS V14.00,2013-02-23 09:05:00,
2013-02-23 04:06:00,29.3,25.6,29.85,WSW,238,3.0,12.0,86,0.00,,---,0.00,VWS V14.00,2013-02-23 09:06:00,
2013-02-23 04:11:00,29.3,25.6,29.85,SSW,210,5.0,12.0,86,0.00,,---,0.00,VWS V14.00,2013-02-23 09:11:00,
2013-02-23 04:12:00,29.2,25.5,29.86,SW,227,4.0,12.0,86,0.00,,---,0.00,VWS V14.00,2013-02-23 09:12:00,
2013-02-23 04:17:00,29.2,25.5,29.86,WSW,248,4.0,12.0,86,0.00,,---,0.00,VWS V14.00,2013-02-23 09:17:00,
2013-02-23 04:18:00,29.2,25.5,29.86,West,268,3.0,12.0,86,0.00,,---,0.00,VWS V14.00,2013-02-23 09:18:00,
2013-02-23 04:19:00,29.2,25.5,29.86,SW,227,5.0,12.0,86,0.00,,---,0.00,VWS V14.00,2013-02-23 09:19:00,
2013-02-23 04:23:00,29.2,25.5,29.86,SW,227,1.0,12.0,86,0.00,,---,0.00,VWS V14.00,2013-02-23 09:23:00,
2013-02-23 04:24:00,29.2,25.5,29.86,SSW,204,5.0,12.0,86,0.00,,---,0.00,VWS V14.00,2013-02-23 09:24:00,
2013-02-23 04:29:00,29.2,25.5,29.86,WSW,253,4.0,10.0,86,0.00,,---,0.00,VWS V14.00,2013-02-23 09:29:00,
2013-02-23 04:30:00,29.1,25.4,29.86,WSW,254,1.0,10.0,86,0.00,,---,0.00,VWS V14.00,2013-02-23 09:30:00,
2013-02-23 04:34:00,29.1,25.4,29.86,WSW,240,0.0,17.0,86,0.00,,---,0.00,VWS V14.00,2013-02-23 09:34:00,
2013-02-23 04:35:00,29.1,25.4,29.86,WSW,242,3.0,17.0,86,0.00,,---,0.00,VWS V14.00,2013-02-23 09:35:00,
2013-02-23 04:36:00,29.1,25.4,29.86,SW,225,1.0,17.0,86,0.00,,---,0.00,VWS V14.00,2013-02-23 09:36:00,
2013-02-23 04:37:00,29.1,25.4,29.86,West,260,2.0,17.0,86,0.00,,---,0.00,VWS V14.00,2013-02-23 09:37:00,
2013-02-23 04:39:00,29.1,25.4,29.86,SSE,165,0.0,17.0,86,0.00,,---,0.00,VWS V14.00,2013-02-23 09:39:00,
2013-02-23 04:42:00,29.0,25.4,29.86,WSW,244,3.0,17.0,86,0.00,,---,0.00,VWS V14.00,2013-02-23 09:42:00,
2013-02-23 04:44:00,29.0,25.4,29.86,WSW,251,4.0,17.0,86,0.00,,---,0.00,VWS V14.00,2013-02-23 09:44:00,
2013-02-23 04:45:00,29.0,25.4,29.86,WSW,244,1.0,17.0,86,0.00,,---,0.00,VWS V14.00,2013-02-23 09:45:00,
2013-02-23 04:48:00,29.0,25.4,29.86,WSW,258,5.0,17.0,86,0.00,,---,0.00,VWS V14.00,2013-02-23 09:48:00,
2013-02-23 04:49:00,29.0,25.4,29.86,SW,228,9.0,17.0,86,0.00,,---,0.00,VWS V14.00,2013-02-23 09:49:00,
2013-02-23 04:50:00,29.0,25.4,29.86,WSW,249,2.0,17.0,86,0.00,,---,0.00,VWS V14.00,2013-02-23 09:50:00,
2013-02-23 04:52:00,29.0,25.4,29.86,WSW,258,4.0,17.0,86,0.00,,---,0.00,VWS V14.00,2013-02-23 09:52:00,
2013-02-23 04:53:00,29.0,25.4,29.86,WSW,241,1.0,17.0,86,0.00,,---,0.00,VWS V14.00,2013-02-23 09:53:00,
2013-02-23 04:55:00,29.0,25.4,29.86,WSW,249,3.0,17.0,86,0.00,,---,0.00,VWS V14.00,2013-02-23 09:55:00,
2013-02-23 04:56:00,29.0,25.4,29.86,WSW,244,1.0,17.0,86,0.00,,---,0.00,VWS V14.00,2013-02-23 09:56:00,
2013-02-23 04:57:00,29.0,25.4,29.86,WSW,249,4.0,17.0,86,0.00,,---,0.00,VWS V14.00,2013-02-23 09:57:00,
2013-02-23 04:58:00,29.0,25.4,29.86,WSW,256,4.0,17.0,86,0.00,,---,0.00,VWS V14.00,2013-02-23 09:58:00,
2013-02-23 05:01:00,28.9,25.2,29.86,SW,219,2.0,7.0,86,0.00,,---,0.00,VWS V14.00,2013-02-23 10:01:00,
2013-02-23 05:02:00,29.0,25.4,29.86,SW,236,2.0,7.0,86,0.00,,---,0.00,VWS V14.00,2013-02-23 10:02:00,
2013-02-23 05:03:00,28.9,25.2,29.86,WSW,242,4.0,7.0,86,0.00,,---,0.00,VWS V14.00,2013-02-23 10:03:00,
2013-02-23 05:07:00,28.9,25.2,29.86,SW,235,1.0,7.0,86,0.00,,---,0.00,VWS V14.00,2013-02-23 10:07:00,
2013-02-23 05:08:00,28.9,25.2,29.86,WSW,250,2.0,7.0,86,0.00,,---,0.00,VWS V14.00,2013-02-23 10:08:00,
2013-02-23 05:09:00,28.9,25.2,29.86,West,267,3.0,7.0,86,0.00,,---,0.00,VWS V14.00,2013-02-23 10:09:00,
2013-02-23 05:13:00,28.9,25.2,29.86,West,263,2.0,9.0,86,0.00,,---,0.00,VWS V14.00,2013-02-23 10:13:00,
2013-02-23 05:14:00,28.9,25.2,29.86,WSW,241,1.0,9.0,86,0.00,,---,0.00,VWS V14.00,2013-02-23 10:14:00,
2013-02-23 05:15:00,28.9,25.2,29.86,SW,230,1.0,9.0,86,0.00,,---,0.00,VWS V14.00,2013-02-23 10:15:00,
2013-02-23 05:18:00,28.9,25.2,29.86,SW,225,2.0,9.0,86,0.00,,---,0.00,VWS V14.00,2013-02-23 10:18:00,
2013-02-23 05:19:00,28.9,25.2,29.86,SW,225,1.0,9.0,86,0.00,,---,0.00,VWS V14.00,2013-02-23 10:19:00,
2013-02-23 05:20:00,28.9,25.2,29.86,SW,224,4.0,9.0,86,0.00,,---,0.00,VWS V14.00,2013-02-23 10:20:00,
2013-02-23 05:21:00,28.9,25.2,29.86,SW,232,1.0,9.0,86,0.00,,---,0.00,VWS V14.00,2013-02-23 10:21:00,
2013-02-23 05:23:00,28.8,25.4,29.86,WSW,237,2.0,9.0,87,0.00,,---,0.00,VWS V14.00,2013-02-23 10:23:00,
2013-02-23 05:24:00,28.9,25.5,29.86,WSW,238,6.0,9.0,87,0.00,,---,0.00,VWS V14.00,2013-02-23 10:24:00,
2013-02-23 05:26:00,28.8,25.4,29.86,SW,236,1.0,9.0,87,0.00,,---,0.00,VWS V14.00,2013-02-23 10:26:00,
2013-02-23 05:27:00,28.8,25.4,29.86,SW,234,4.0,9.0,87,0.00,,---,0.00,VWS V14.00,2013-02-23 10:27:00,
2013-02-23 05:28:00,28.8,25.4,29.86,West,261,2.0,2.0,87,0.00,,---,0.00,VWS V14.00,2013-02-23 10:28:00,
2013-02-23 05:29:00,28.8,25.4,29.86,WSW,256,1.0,4.0,87,0.00,,---,0.00,VWS V14.00,2013-02-23 10:29:00,
2013-02-23 05:33:00,28.8,25.4,29.86,SW,225,3.0,5.0,87,0.00,,---,0.00,VWS V14.00,2013-02-23 10:33:00,
2013-02-23 05:34:00,28.8,25.4,29.86,SW,223,4.0,5.0,87,0.00,,---,0.00,VWS V14.00,2013-02-23 10:34:00,
2013-02-23 05:36:00,28.8,25.4,29.86,WSW,252,6.0,11.0,87,0.00,,---,0.00,VWS V14.00,2013-02-23 10:36:00,
2013-02-23 05:40:00,28.8,25.4,29.87,West,280,2.0,14.0,87,0.00,,---,0.00,VWS V14.00,2013-02-23 10:40:00,
2013-02-23 05:41:00,28.8,25.4,29.87,SW,236,2.0,14.0,87,0.00,,---,0.00,VWS V14.00,2013-02-23 10:41:00,
2013-02-23 05:43:00,28.8,25.4,29.87,WSW,249,3.0,14.0,87,0.00,,---,0.00,VWS V14.00,2013-02-23 10:43:00,
2013-02-23 05:44:00,28.8,25.4,29.86,SW,236,2.0,14.0,87,0.00,,---,0.00,VWS V14.00,2013-02-23 10:44:00,
2013-02-23 05:46:00,28.8,25.4,29.86,WSW,242,2.0,14.0,87,0.00,,---,0.00,VWS V14.00,2013-02-23 10:46:00,
2013-02-23 05:47:00,28.8,25.4,29.86,SW,229,4.0,14.0,87,0.00,,---,0.00,VWS V14.00,2013-02-23 10:47:00,
2013-02-23 05:48:00,28.8,25.4,29.86,WSW,242,2.0,14.0,87,0.00,,---,0.00,VWS V14.00,2013-02-23 10:48:00,
2013-02-23 05:49:00,28.8,25.4,29.86,SSW,212,0.0,14.0,87,0.00,,---,0.00,VWS V14.00,2013-02-23 10:49:00,
2013-02-23 05:51:00,28.8,25.4,29.86,WSW,242,2.0,14.0,87,0.00,,---,0.00,VWS V14.00,2013-02-23 10:51:00,
2013-02-23 05:53:00,28.8,25.1,29.86,SSW,209,3.0,14.0,86,0.00,,---,0.00,VWS V14.00,2013-02-23 10:53:00,
2013-02-23 05:54:00,28.8,25.4,29.87,SW,215,1.0,14.0,87,0.00,,---,0.00,VWS V14.00,2013-02-23 10:54:00,
2013-02-23 05:56:00,28.8,25.1,29.86,WSW,242,3.0,14.0,86,0.00,,---,0.00,VWS V14.00,2013-02-23 10:56:00,
2013-02-23 05:59:00,28.8,25.4,29.86,WSW,244,1.0,4.0,87,0.00,,---,0.00,VWS V14.00,2013-02-23 10:59:00,
2013-02-23 06:00:00,28.8,25.4,29.99,WSW,241,4.0,4.0,87,0.00,,---,0.00,VWS V14.00,2013-02-23 11:00:00,
2013-02-23 06:02:00,28.8,25.4,29.99,WSW,254,6.0,6.0,87,0.00,,---,0.00,VWS V14.00,2013-02-23 11:02:00,
2013-02-23 06:04:00,28.8,25.4,29.99,WSW,241,3.0,6.0,87,0.00,,---,0.00,VWS V14.00,2013-02-23 11:04:00,
2013-02-23 06:05:00,28.8,25.4,29.99,SSW,211,2.0,6.0,87,0.00,,---,0.00,VWS V14.00,2013-02-23 11:05:00,
2013-02-23 06:08:00,28.7,25.0,29.99,WSW,243,3.0,7.0,86,0.00,,---,0.00,VWS V14.00,2013-02-23 11:08:00,
2013-02-23 06:09:00,28.7,25.3,29.99,WSW,257,3.0,7.0,87,0.00,,---,0.00,VWS V14.00,2013-02-23 11:09:00,
2013-02-23 06:12:00,28.8,25.4,29.99,WSW,250,0.0,7.0,87,0.00,,---,0.00,VWS V14.00,2013-02-23 11:12:00,
2013-02-23 06:13:00,28.8,25.4,29.99,WSW,243,2.0,7.0,87,0.00,,---,0.00,VWS V14.00,2013-02-23 11:13:00,
2013-02-23 06:15:00,28.7,25.3,29.99,SSW,194,1.0,7.0,87,0.00,,---,0.00,VWS V14.00,2013-02-23 11:15:00,
2013-02-23 06:19:00,28.7,25.3,29.99,WSW,251,4.0,9.0,87,0.00,,---,0.00,VWS V14.00,2013-02-23 11:19:00,
2013-02-23 06:21:00,28.7,25.3,29.99,WSW,238,3.0,9.0,87,0.00,,---,0.00,VWS V14.00,2013-02-23 11:21:00,
2013-02-23 06:22:00,28.7,25.3,29.99,West,259,1.0,10.0,87,0.00,,---,0.00,VWS V14.00,2013-02-23 11:22:00,
2013-02-23 06:24:00,28.7,25.3,29.99,West,268,6.0,10.0,87,0.00,,---,0.00,VWS V14.00,2013-02-23 11:24:00,
2013-02-23 06:26:00,28.7,25.3,29.99,SW,236,2.0,10.0,87,0.00,,---,0.00,VWS V14.00,2013-02-23 11:26:00,
2013-02-23 06:30:00,28.7,25.3,29.99,WSW,257,1.0,6.0,87,0.00,,---,0.00,VWS V14.00,2013-02-23 11:30:00,
2013-02-23 06:31:00,28.7,25.3,29.99,WSW,249,2.0,6.0,87,0.00,,---,0.00,VWS V14.00,2013-02-23 11:31:00,
2013-02-23 06:32:00,28.7,25.3,29.99,West,267,2.0,7.0,87,0.00,,---,0.00,VWS V14.00,2013-02-23 11:32:00,
2013-02-23 06:36:00,28.7,25.3,30.00,WSW,256,4.0,10.0,87,0.00,,---,0.00,VWS V14.00,2013-02-23 11:36:00,
2013-02-23 06:37:00,28.7,25.3,30.00,WSW,253,3.0,10.0,87,0.00,,---,0.00,VWS V14.00,2013-02-23 11:37:00,
2013-02-23 06:38:00,28.7,25.3,30.00,WSW,237,2.0,10.0,87,0.00,,---,0.00,VWS V14.00,2013-02-23 11:38:00,
2013-02-23 06:42:00,28.6,25.2,30.00,WSW,243,0.0,10.0,87,0.00,,---,0.00,VWS V14.00,2013-02-23 11:42:00,
2013-02-23 06:43:00,28.6,25.2,30.00,WSW,248,3.0,10.0,87,0.00,,---,0.00,VWS V14.00,2013-02-23 11:43:00,
2013-02-23 06:45:00,28.6,25.2,30.00,WSW,248,8.0,12.0,87,0.00,,---,0.00,VWS V14.00,2013-02-23 11:45:00,
2013-02-23 06:48:00,28.7,25.3,30.00,West,259,4.0,12.0,87,0.00,,---,0.00,VWS V14.00,2013-02-23 11:48:00,
2013-02-23 06:51:00,28.7,25.3,30.00,WNW,286,5.0,12.0,87,0.00,,---,0.00,VWS V14.00,2013-02-23 11:51:00,
2013-02-23 06:54:00,28.7,25.3,30.00,WSW,246,4.0,12.0,87,0.00,,---,0.00,VWS V14.00,2013-02-23 11:54:00,
2013-02-23 06:56:00,28.6,25.2,30.00,WSW,256,4.0,12.0,87,0.00,,---,0.00,VWS V14.00,2013-02-23 11:56:00,
2013-02-23 06:57:00,28.6,25.2,30.01,SW,227,5.0,12.0,87,0.00,,---,0.00,VWS V14.00,2013-02-23 11:57:00,
2013-02-23 06:58:00,28.6,25.2,30.00,West,270,4.0,12.0,87,0.00,,---,0.00,VWS V14.00,2013-02-23 11:58:00,
2013-02-23 07:01:00,28.6,25.2,30.00,WSW,257,4.0,9.0,87,0.00,,---,0.00,VWS V14.00,2013-02-23 12:01:00,
2013-02-23 07:02:00,28.6,25.2,30.00,WSW,241,0.0,9.0,87,0.00,,---,0.00,VWS V14.00,2013-02-23 12:02:00,
2013-02-23 07:03:00,28.6,25.2,30.00,WSW,252,0.0,9.0,87,0.00,,---,0.00,VWS V14.00,2013-02-23 12:03:00,
2013-02-23 07:04:00,28.6,25.2,30.00,SW,234,3.0,9.0,87,0.00,,---,0.00,VWS V14.00,2013-02-23 12:04:00,
2013-02-23 07:07:00,28.6,25.2,30.00,WSW,242,1.0,9.0,87,0.00,,---,0.00,VWS V14.00,2013-02-23 12:07:00,
2013-02-23 07:08:00,28.6,25.2,30.00,SSW,198,1.0,9.0,87,0.00,,---,0.00,VWS V14.00,2013-02-23 12:08:00,
2013-02-23 07:09:00,28.5,25.1,30.01,West,277,2.0,9.0,87,0.00,,---,0.00,VWS V14.00,2013-02-23 12:09:00,
2013-02-23 07:12:00,28.6,25.2,30.00,West,263,11.0,18.0,87,0.00,,---,0.00,VWS V14.00,2013-02-23 12:12:00,
2013-02-23 07:14:00,28.5,25.1,30.00,West,278,2.0,18.0,87,0.00,,---,0.00,VWS V14.00,2013-02-23 12:14:00,
2013-02-23 07:19:00,28.5,25.1,30.00,WSW,257,6.0,18.0,87,0.00,,---,0.00,VWS V14.00,2013-02-23 12:19:00,
2013-02-23 07:20:00,28.5,25.1,30.00,West,265,5.0,18.0,87,0.00,,---,0.00,VWS V14.00,2013-02-23 12:20:00,
2013-02-23 07:21:00,28.5,25.1,30.01,West,261,3.0,18.0,87,0.00,,---,0.00,VWS V14.00,2013-02-23 12:21:00,
2013-02-23 07:24:00,28.4,25.0,30.01,West,275,1.0,18.0,87,0.00,,---,0.00,VWS V14.00,2013-02-23 12:24:00,
2013-02-23 07:25:00,28.4,25.0,30.01,SW,229,1.0,18.0,87,0.00,,---,0.00,VWS V14.00,2013-02-23 12:25:00,
2013-02-23 07:26:00,28.4,25.0,30.01,West,271,6.0,18.0,87,0.00,,---,0.00,VWS V14.00,2013-02-23 12:26:00,
2013-02-23 07:27:00,28.4,25.0,30.01,SW,236,5.0,18.0,87,0.00,,---,0.00,VWS V14.00,2013-02-23 12:27:00,
2013-02-23 07:29:00,28.4,25.0,30.01,WSW,248,1.0,12.0,87,0.00,,---,0.00,VWS V14.00,2013-02-23 12:29:00,
2013-02-23 07:30:00,28.4,25.0,30.01,West,259,1.0,12.0,87,0.00,,---,0.00,VWS V14.00,2013-02-23 12:30:00,
2013-02-23 07:31:00,28.4,25.0,30.01,WSW,240,2.0,12.0,87,0.00,,---,0.00,VWS V14.00,2013-02-23 12:31:00,
2013-02-23 07:34:00,28.4,25.0,30.01,SW,223,3.0,12.0,87,0.00,,---,0.00,VWS V14.00,2013-02-23 12:34:00,
2013-02-23 07:35:00,28.4,25.0,30.01,West,259,6.0,12.0,87,0.00,,---,0.00,VWS V14.00,2013-02-23 12:35:00,
2013-02-23 07:37:00,28.3,24.9,30.01,West,259,1.0,12.0,87,0.00,,---,0.00,VWS V14.00,2013-02-23 12:37:00,
2013-02-23 07:38:00,28.3,24.9,30.01,West,268,1.0,12.0,87,0.00,,---,0.00,VWS V14.00,2013-02-23 12:38:00,
2013-02-23 07:40:00,28.3,24.9,30.01,West,264,4.0,12.0,87,0.00,,---,0.00,VWS V14.00,2013-02-23 12:40:00,
2013-02-23 07:42:00,28.3,24.9,30.01,West,276,6.0,12.0,87,0.00,,---,0.00,VWS V14.00,2013-02-23 12:42:00,
2013-02-23 07:43:00,28.3,24.9,30.01,West,263,2.0,12.0,87,0.00,,---,0.00,VWS V14.00,2013-02-23 12:43:00,
2013-02-23 07:45:00,28.3,24.9,30.01,West,267,3.0,12.0,87,0.00,,---,0.00,VWS V14.00,2013-02-23 12:45:00,
2013-02-23 07:47:00,28.3,24.9,30.01,SW,232,7.0,12.0,87,0.00,,---,0.00,VWS V14.00,2013-02-23 12:47:00,
2013-02-23 07:48:00,28.3,24.9,30.01,WSW,258,3.0,12.0,87,0.00,,---,0.00,VWS V14.00,2013-02-23 12:48:00,
2013-02-23 07:50:00,28.3,24.9,30.01,WSW,258,3.0,12.0,87,0.00,,---,0.00,VWS V14.00,2013-02-23 12:50:00,
2013-02-23 07:51:00,28.3,24.9,30.01,West,267,1.0,12.0,87,0.00,,---,0.00,VWS V14.00,2013-02-23 12:51:00,
2013-02-23 07:53:00,28.3,24.9,30.01,West,272,4.0,12.0,87,0.00,,---,0.00,VWS V14.00,2013-02-23 12:53:00,
2013-02-23 07:55:00,28.3,24.9,30.01,West,269,3.0,12.0,87,0.00,,---,0.00,VWS V14.00,2013-02-23 12:55:00,
2013-02-23 07:56:00,28.3,24.9,30.01,WSW,253,1.0,12.0,87,0.00,,---,0.00,VWS V14.00,2013-02-23 12:56:00,
2013-02-23 07:57:00,28.3,24.9,30.01,West,279,8.0,12.0,87,0.00,,---,0.00,VWS V14.00,2013-02-23 12:57:00,
2013-02-23 07:58:00,28.2,24.8,30.01,West,275,4.0,12.0,87,0.00,,---,0.00,VWS V14.00,2013-02-23 12:58:00,
2013-02-23 08:00:00,28.3,24.9,30.01,West,267,4.0,10.0,87,0.00,,---,0.00,VWS V14.00,2013-02-23 13:00:00,
2013-02-23 08:01:00,28.2,24.8,30.01,West,261,6.0,10.0,87,0.00,,---,0.00,VWS V14.00,2013-02-23 13:01:00,
2013-02-23 08:02:00,28.2,24.8,30.01,WSW,250,2.0,10.0,87,0.00,,---,0.00,VWS V14.00,2013-02-23 13:02:00,
2013-02-23 08:03:00,28.3,24.9,30.01,WSW,255,7.0,10.0,87,0.00,,---,0.00,VWS V14.00,2013-02-23 13:03:00,
2013-02-23 08:06:00,28.2,24.8,30.01,WSW,254,3.0,10.0,87,0.00,,---,0.00,VWS V14.00,2013-02-23 13:06:00,
2013-02-23 08:07:00,28.2,24.8,30.02,WSW,252,0.0,10.0,87,0.00,,---,0.00,VWS V14.00,2013-02-23 13:07:00,
2013-02-23 08:08:00,28.2,24.8,30.02,WSW,244,4.0,10.0,87,0.00,,---,0.00,VWS V14.00,2013-02-23 13:08:00,
2013-02-23 08:11:00,28.2,24.8,30.02,West,264,3.0,10.0,87,0.00,,---,0.00,VWS V14.00,2013-02-23 13:11:00,
2013-02-23 08:12:00,28.2,24.8,30.02,West,267,2.0,10.0,87,0.00,,---,0.00,VWS V14.00,2013-02-23 13:12:00,
2013-02-23 08:14:00,28.2,24.8,30.02,WSW,238,4.0,10.0,87,0.00,,---,0.00,VWS V14.00,2013-02-23 13:14:00,
2013-02-23 08:16:00,28.2,24.8,30.02,WSW,244,5.0,11.0,87,0.00,,---,0.00,VWS V14.00,2013-02-23 13:16:00,
2013-02-23 08:17:00,28.3,24.9,30.02,WSW,242,2.0,11.0,87,0.00,,---,0.00,VWS V14.00,2013-02-23 13:17:00,
2013-02-23 08:19:00,28.3,24.9,30.02,West,273,1.0,11.0,87,0.00,,---,0.00,VWS V14.00,2013-02-23 13:19:00,
2013-02-23 08:20:00,28.3,24.9,30.02,WSW,254,7.0,12.0,87,0.00,,---,0.00,VWS V14.00,2013-02-23 13:20:00,
2013-02-23 08:22:00,28.3,24.9,30.02,West,271,4.0,12.0,87,0.00,,---,0.00,VWS V14.00,2013-02-23 13:22:00,
2013-02-23 08:24:00,28.3,24.9,30.02,West,259,7.0,12.0,87,0.00,,---,0.00,VWS V14.00,2013-02-23 13:24:00,
2013-02-23 08:26:00,28.2,24.8,30.02,WSW,254,9.0,12.0,87,0.00,,---,0.00,VWS V14.00,2013-02-23 13:26:00,
2013-02-23 08:29:00,28.3,24.9,30.02,West,278,3.0,11.0,87,0.00,,---,0.00,VWS V14.00,2013-02-23 13:29:00,
2013-02-23 08:31:00,28.3,24.9,30.02,WSW,253,1.0,11.0,87,0.00,,---,0.00,VWS V14.00,2013-02-23 13:31:00,
2013-02-23 08:32:00,28.3,24.9,30.02,WSW,246,4.0,11.0,87,0.00,,---,0.00,VWS V14.00,2013-02-23 13:32:00,
2013-02-23 08:33:00,28.3,24.9,30.02,West,267,2.0,11.0,87,0.00,,---,0.00,VWS V14.00,2013-02-23 13:33:00,
2013-02-23 08:36:00,28.3,24.9,30.01,West,271,4.0,11.0,87,0.00,,---,0.00,VWS V14.00,2013-02-23 13:36:00,
2013-02-23 08:38:00,28.3,24.9,30.02,West,261,2.0,11.0,87,0.00,,---,0.00,VWS V14.00,2013-02-23 13:38:00,
2013-02-23 08:40:00,28.4,25.0,30.01,West,261,6.0,11.0,87,0.00,,---,0.00,VWS V14.00,2013-02-23 13:40:00,
2013-02-23 08:43:00,28.4,25.0,30.01,SW,236,2.0,11.0,87,0.00,,---,0.00,VWS V14.00,2013-02-23 13:43:00,
2013-02-23 08:44:00,28.4,25.0,30.01,SW,230,3.0,11.0,87,0.00,,---,0.00,VWS V14.00,2013-02-23 13:44:00,
2013-02-23 08:46:00,28.3,24.9,30.01,WSW,254,9.0,17.0,87,0.00,,---,0.00,VWS V14.00,2013-02-23 13:46:00,
2013-02-23 08:47:00,28.3,24.9,30.01,WSW,253,6.0,17.0,87,0.00,,---,0.00,VWS V14.00,2013-02-23 13:47:00,
2013-02-23 08:49:00,28.2,24.8,30.01,West,280,4.0,17.0,87,0.00,,---,0.00,VWS V14.00,2013-02-23 13:49:00,
2013-02-23 08:51:00,28.2,24.8,30.01,WSW,250,3.0,17.0,87,0.00,,---,0.00,VWS V14.00,2013-02-23 13:51:00,
2013-02-23 08:52:00,28.2,24.8,30.01,SW,234,10.0,17.0,87,0.00,,---,0.00,VWS V14.00,2013-02-23 13:52:00,
2013-02-23 08:54:00,28.2,24.8,30.01,West,277,7.0,17.0,87,0.00,,---,0.00,VWS V14.00,2013-02-23 13:54:00,
2013-02-23 08:57:00,28.3,24.9,30.01,WSW,254,2.0,17.0,87,0.00,,---,0.00,VWS V14.00,2013-02-23 13:57:00,
2013-02-23 08:58:00,28.3,24.9,30.01,West,264,5.0,17.0,87,0.00,,---,0.00,VWS V14.00,2013-02-23 13:58:00,
2013-02-23 08:59:00,28.3,24.9,30.01,West,259,5.0,5.0,87,0.00,,---,0.00,VWS V14.00,2013-02-23 13:59:00,
2013-02-23 09:03:00,28.3,24.9,30.01,WSW,254,3.0,9.0,87,0.00,,---,0.00,VWS V14.00,2013-02-23 14:03:00,
2013-02-23 09:04:00,28.4,25.0,30.01,WSW,240,5.0,9.0,87,0.00,,---,0.00,VWS V14.00,2013-02-23 14:04:00,
2013-02-23 09:05:00,28.4,25.0,30.01,NW,304,5.0,9.0,87,0.00,,---,0.00,VWS V14.00,2013-02-23 14:05:00,
2013-02-23 09:08:00,28.4,24.8,30.01,West,280,5.0,11.0,86,0.00,,---,0.00,VWS V14.00,2013-02-23 14:08:00,
2013-02-23 09:10:00,28.4,24.8,30.01,WNW,283,9.0,11.0,86,0.00,,---,0.00,VWS V14.00,2013-02-23 14:10:00,
2013-02-23 09:11:00,28.5,24.9,30.01,West,273,2.0,11.0,86,0.00,,---,0.00,VWS V14.00,2013-02-23 14:11:00,
2013-02-23 09:13:00,28.5,24.9,30.01,WNW,288,4.0,15.0,86,0.00,,---,0.00,VWS V14.00,2013-02-23 14:13:00,
2013-02-23 09:15:00,28.5,24.9,30.01,West,261,3.0,15.0,86,0.00,,---,0.00,VWS V14.00,2013-02-23 14:15:00,
2013-02-23 09:16:00,28.5,24.9,30.01,SW,223,3.0,15.0,86,0.00,,---,0.00,VWS V14.00,2013-02-23 14:16:00,
2013-02-23 09:17:00,28.5,24.9,30.01,SW,226,2.0,15.0,86,0.00,,---,0.00,VWS V14.00,2013-02-23 14:17:00,
2013-02-23 09:18:00,28.5,24.9,30.01,West,273,6.0,15.0,86,0.00,,---,0.00,VWS V14.00,2013-02-23 14:18:00,
2013-02-23 09:22:00,28.6,25.0,30.01,WSW,242,3.0,15.0,86,0.00,,---,0.00,VWS V14.00,2013-02-23 14:22:00,
2013-02-23 09:24:00,28.6,25.0,30.01,West,261,4.0,15.0,86,0.00,,---,0.00,VWS V14.00,2013-02-23 14:24:00,
2013-02-23 09:27:00,28.7,25.0,30.01,WSW,246,2.0,15.0,86,0.00,,---,0.00,VWS V14.00,2013-02-23 14:27:00,
2013-02-23 09:29:00,28.7,25.0,30.01,WSW,249,4.0,11.0,86,0.00,,---,0.00,VWS V14.00,2013-02-23 14:29:00,
2013-02-23 09:30:00,28.8,25.1,30.01,West,261,1.0,11.0,86,0.00,,---,0.00,VWS V14.00,2013-02-23 14:30:00,
2013-02-23 09:31:00,28.8,25.1,30.01,WNW,282,1.0,11.0,86,0.00,,---,0.00,VWS V14.00,2013-02-23 14:31:00,
2013-02-23 09:33:00,28.9,25.2,30.01,West,272,3.0,11.0,86,0.00,,---,0.00,VWS V14.00,2013-02-23 14:33:00,
2013-02-23 09:35:00,29.0,25.4,30.01,WSW,252,1.0,11.0,86,0.00,,---,0.00,VWS V14.00,2013-02-23 14:35:00,
2013-02-23 09:36:00,29.1,25.4,30.01,WSW,252,6.0,11.0,86,0.00,,---,0.00,VWS V14.00,2013-02-23 14:36:00,
2013-02-23 09:38:00,29.1,25.2,30.01,WSW,258,3.0,11.0,85,0.00,,---,0.00,VWS V14.00,2013-02-23 14:38:00,
2013-02-23 09:40:00,29.2,25.3,30.01,WSW,247,7.0,15.0,85,0.00,,---,0.00,VWS V14.00,2013-02-23 14:40:00,
2013-02-23 09:43:00,29.2,25.0,30.01,WNW,288,11.0,15.0,84,0.00,,---,0.00,VWS V14.00,2013-02-23 14:43:00,
2013-02-23 09:44:00,29.2,25.0,30.01,SW,218,5.0,18.0,84,0.00,,---,0.00,VWS V14.00,2013-02-23 14:44:00,
2013-02-23 09:45:00,29.1,24.9,30.01,WNW,300,5.0,18.0,84,0.00,,---,0.00,VWS V14.00,2013-02-23 14:45:00,
2013-02-23 09:46:00,29.1,24.9,30.01,West,267,2.0,18.0,84,0.00,,---,0.00,VWS V14.00,2013-02-23 14:46:00,
2013-02-23 09:48:00,29.1,24.9,30.01,WSW,252,2.0,18.0,84,0.00,,---,0.00,VWS V14.00,2013-02-23 14:48:00,
2013-02-23 09:50:00,29.2,25.0,30.01,West,263,4.0,18.0,84,0.00,,---,0.00,VWS V14.00,2013-02-23 14:50:00,
2013-02-23 09:52:00,29.3,25.1,30.01,WSW,250,3.0,18.0,84,0.00,,---,0.00,VWS V14.00,2013-02-23 14:52:00,
2013-02-23 09:54:00,29.3,25.1,30.00,West,275,7.0,18.0,84,0.00,,---,0.00,VWS V14.00,2013-02-23 14:54:00,
2013-02-23 09:57:00,29.3,24.8,30.00,WSW,242,6.0,19.0,83,0.00,,---,0.00,VWS V14.00,2013-02-23 14:57:00,
2013-02-23 10:01:00,29.4,24.9,30.01,WNW,296,2.0,9.0,83,0.00,,---,0.00,VWS V14.00,2013-02-23 15:01:00,
2013-02-23 10:04:00,29.4,24.6,30.00,West,278,9.0,10.0,82,0.00,,---,0.00,VWS V14.00,2013-02-23 15:04:00,
2013-02-23 10:06:00,29.5,24.7,30.00,WSW,252,5.0,10.0,82,0.00,,---,0.00,VWS V14.00,2013-02-23 15:06:00,
2013-02-23 10:09:00,29.6,24.8,30.00,SW,230,4.0,10.0,82,0.00,,---,0.00,VWS V14.00,2013-02-23 15:09:00,
2013-02-23 10:11:00,29.6,24.8,30.00,WSW,257,4.0,10.0,82,0.00,,---,0.00,VWS V14.00,2013-02-23 15:11:00,
2013-02-23 10:12:00,29.7,24.9,30.00,WSW,240,2.0,10.0,82,0.00,,---,0.00,VWS V14.00,2013-02-23 15:12:00,
2013-02-23 10:16:00,29.6,24.8,30.01,WSW,245,10.0,12.0,82,0.00,,---,0.00,VWS V14.00,2013-02-23 15:16:00,
2013-02-23 10:17:00,29.6,24.8,30.00,West,275,5.0,12.0,82,0.00,,---,0.00,VWS V14.00,2013-02-23 15:17:00,
2013-02-23 10:18:00,29.7,24.9,30.00,West,262,3.0,12.0,82,0.00,,---,0.00,VWS V14.00,2013-02-23 15:18:00,
2013-02-23 10:23:00,29.7,24.6,30.00,West,277,4.0,12.0,81,0.00,,---,0.00,VWS V14.00,2013-02-23 15:23:00,
2013-02-23 10:24:00,29.7,24.6,30.01,WSW,249,4.0,19.0,81,0.00,,---,0.00,VWS V14.00,2013-02-23 15:24:00,
2013-02-23 10:25:00,29.7,24.6,30.01,WSW,238,2.0,19.0,81,0.00,,---,0.00,VWS V14.00,2013-02-23 15:25:00,
2013-02-23 10:28:00,29.7,24.6,30.01,WSW,252,4.0,19.0,81,0.00,,---,0.00,VWS V14.00,2013-02-23 15:28:00,
2013-02-23 10:30:00,29.7,24.6,30.00,SW,231,6.0,13.0,81,0.00,,---,0.00,VWS V14.00,2013-02-23 15:30:00,
2013-02-23 10:31:00,29.8,24.7,30.01,WSW,240,4.0,13.0,81,0.00,,---,0.00,VWS V14.00,2013-02-23 15:31:00,
2013-02-23 10:32:00,29.8,24.7,30.00,SW,232,2.0,13.0,81,0.00,,---,0.00,VWS V14.00,2013-02-23 15:32:00,
2013-02-23 10:33:00,29.8,24.4,30.00,SW,236,14.0,14.0,80,0.00,,---,0.00,VWS V14.00,2013-02-23 15:33:00,
2013-02-23 10:38:00,29.9,24.5,30.00,WSW,254,10.0,18.0,80,0.00,,---,0.00,VWS V14.00,2013-02-23 15:38:00,
2013-02-23 10:40:00,29.7,24.3,30.00,SW,231,11.0,18.0,80,0.00,,---,0.00,VWS V14.00,2013-02-23 15:40:00,
2013-02-23 10:44:00,29.7,24.3,30.01,West,275,6.0,18.0,80,0.00,,---,0.00,VWS V14.00,2013-02-23 15:44:00,
2013-02-23 10:45:00,29.7,24.3,30.01,WSW,245,1.0,18.0,80,0.00,,---,0.00,VWS V14.00,2013-02-23 15:45:00,
2013-02-23 10:46:00,29.7,24.3,30.00,West,279,9.0,18.0,80,0.00,,---,0.00,VWS V14.00,2013-02-23 15:46:00,
2013-02-23 10:50:00,29.7,24.3,30.01,WNW,284,9.0,18.0,80,0.00,,---,0.00,VWS V14.00,2013-02-23 15:50:00,
2013-02-23 10:51:00,29.7,24.3,30.01,West,273,4.0,18.0,80,0.00,,---,0.00,VWS V14.00,2013-02-23 15:51:00,
2013-02-23 10:52:00,29.7,24.3,30.01,West,275,16.0,18.0,80,0.00,,---,0.00,VWS V14.00,2013-02-23 15:52:00,
2013-02-23 10:54:00,29.6,24.2,30.01,WSW,243,10.0,18.0,80,0.00,,---,0.00,VWS V14.00,2013-02-23 15:54:00,
2013-02-23 10:56:00,29.5,24.1,30.01,West,268,1.0,18.0,80,0.00,,---,0.00,VWS V14.00,2013-02-23 15:56:00,
2013-02-23 10:57:00,29.4,24.0,30.01,West,268,4.0,18.0,80,0.00,,---,0.00,VWS V14.00,2013-02-23 15:57:00,
2013-02-23 10:58:00,29.3,23.9,30.01,WSW,247,1.0,18.0,80,0.00,,---,0.00,VWS V14.00,2013-02-23 15:58:00,
2013-02-23 10:59:00,29.3,23.9,29.89,WSW,253,5.0,13.0,80,0.00,,---,0.00,VWS V14.00,2013-02-23 15:59:00,
2013-02-23 11:01:00,29.2,24.1,29.89,West,278,8.0,13.0,81,0.00,,---,0.00,VWS V14.00,2013-02-23 16:01:00,
2013-02-23 11:03:00,29.2,24.1,29.89,West,260,6.0,15.0,81,0.00,,---,0.00,VWS V14.00,2013-02-23 16:03:00,
2013-02-23 11:05:00,29.1,24.0,29.89,WNW,299,10.0,18.0,81,0.00,,---,0.00,VWS V14.00,2013-02-23 16:05:00,
2013-02-23 11:07:00,29.0,24.2,29.89,WNW,282,5.0,18.0,82,0.00,,---,0.00,VWS V14.00,2013-02-23 16:07:00,
2013-02-23 11:08:00,29.0,24.2,29.89,West,260,7.0,18.0,82,0.00,,---,0.00,VWS V14.00,2013-02-23 16:08:00,
2013-02-23 11:10:00,29.0,24.2,29.90,WSW,253,5.0,18.0,82,0.00,,---,0.00,VWS V14.00,2013-02-23 16:10:00,
2013-02-23 11:15:00,29.0,24.2,29.89,WSW,246,7.0,18.0,82,0.00,,---,0.00,VWS V14.00,2013-02-23 16:15:00,
2013-02-23 11:16:00,29.0,24.5,29.89,WNW,286,5.0,18.0,83,0.00,,---,0.00,VWS V14.00,2013-02-23 16:16:00,
2013-02-23 11:18:00,28.9,24.4,29.89,West,263,4.0,18.0,83,0.00,,---,0.00,VWS V14.00,2013-02-23 16:18:00,
2013-02-23 11:21:00,28.8,24.3,29.89,West,276,9.0,18.0,83,0.00,,---,0.00,VWS V14.00,2013-02-23 16:21:00,
2013-02-23 11:22:00,28.8,24.3,29.89,West,269,5.0,19.0,83,0.00,,---,0.00,VWS V14.00,2013-02-23 16:22:00,
2013-02-23 11:24:00,28.7,24.2,29.89,West,263,9.0,19.0,83,0.00,,---,0.00,VWS V14.00,2013-02-23 16:24:00,
2013-02-23 11:27:00,28.6,24.1,29.89,WSW,254,2.0,19.0,83,0.00,,---,0.00,VWS V14.00,2013-02-23 16:27:00,
2013-02-23 11:28:00,28.6,24.1,29.89,SW,232,4.0,19.0,83,0.00,,---,0.00,VWS V14.00,2013-02-23 16:28:00,
2013-02-23 11:32:00,28.5,24.3,29.89,WSW,240,5.0,11.0,84,0.00,,---,0.00,VWS V14.00,2013-02-23 16:32:00,
2013-02-23 11:33:00,28.5,24.3,29.89,West,271,1.0,11.0,84,0.00,,---,0.00,VWS V14.00,2013-02-23 16:33:00,
2013-02-23 11:34:00,28.5,24.3,29.89,West,281,6.0,11.0,84,0.00,,---,0.00,VWS V14.00,2013-02-23 16:34:00,
2013-02-23 11:35:00,28.5,24.3,29.89,WSW,254,5.0,11.0,84,0.00,,---,0.00,VWS V14.00,2013-02-23 16:35:00,
2013-02-23 11:38:00,28.4,24.2,29.89,WSW,244,3.0,11.0,84,0.00,,---,0.00,VWS V14.00,2013-02-23 16:38:00,
2013-02-23 11:40:00,28.4,24.2,29.89,West,273,6.0,11.0,84,0.00,,---,0.00,VWS V14.00,2013-02-23 16:40:00,
2013-02-23 11:41:00,28.4,24.5,29.89,West,273,4.0,11.0,85,0.00,,---,0.00,VWS V14.00,2013-02-23 16:41:00,
2013-02-23 11:43:00,28.4,24.5,29.89,WSW,257,2.0,11.0,85,0.00,,---,0.00,VWS V14.00,2013-02-23 16:43:00,
2013-02-23 11:44:00,28.5,24.6,29.89,WSW,258,0.0,11.0,85,0.00,,---,0.00,VWS V14.00,2013-02-23 16:44:00,
2013-02-23 11:45:00,28.5,24.6,29.89,West,278,3.0,11.0,85,0.00,,---,0.00,VWS V14.00,2013-02-23 16:45:00,
2013-02-23 11:48:00,28.5,24.6,29.89,WSW,244,2.0,11.0,85,0.00,,---,0.00,VWS V14.00,2013-02-23 16:48:00,
2013-02-23 11:49:00,28.4,24.5,29.90,WSW,242,0.0,11.0,85,0.00,,---,0.00,VWS V14.00,2013-02-23 16:49:00,
2013-02-23 11:50:00,28.5,24.6,29.90,WSW,253,2.0,11.0,85,0.00,,---,0.00,VWS V14.00,2013-02-23 16:50:00,
2013-02-23 11:53:00,28.4,24.5,29.90,West,269,4.0,11.0,85,0.00,,---,0.00,VWS V14.00,2013-02-23 16:53:00,
2013-02-23 11:54:00,28.4,24.5,29.90,West,265,3.0,11.0,85,0.00,,---,0.00,VWS V14.00,2013-02-23 16:54:00,
2013-02-23 11:55:00,28.5,24.6,29.90,SW,228,7.0,11.0,85,0.00,,---,0.00,VWS V14.00,2013-02-23 16:55:00,
2013-02-23 11:56:00,28.5,24.6,29.90,WSW,248,4.0,11.0,85,0.00,,---,0.00,VWS V14.00,2013-02-23 16:56:00,
2013-02-23 11:59:00,28.5,24.6,29.90,WSW,248,11.0,11.0,85,0.00,,---,0.00,VWS V14.00,2013-02-23 16:59:00,
2013-02-23 12:00:00,28.5,24.3,29.90,WSW,249,5.0,11.0,84,0.00,,---,0.00,VWS V14.00,2013-02-23 17:00:00,
2013-02-23 12:01:00,28.4,24.2,29.90,West,265,5.0,11.0,84,0.00,,---,0.00,VWS V14.00,2013-02-23 17:01:00,
2013-02-23 12:04:00,28.4,24.2,29.90,WSW,254,5.0,11.0,84,0.00,,---,0.00,VWS V14.00,2013-02-23 17:04:00,
2013-02-23 12:05:00,28.4,24.2,29.90,WNW,283,18.0,20.0,84,0.00,,---,0.00,VWS V14.00,2013-02-23 17:05:00,
2013-02-23 12:06:00,28.4,24.2,29.90,WSW,246,4.0,20.0,84,0.00,,---,0.00,VWS V14.00,2013-02-23 17:06:00,
2013-02-23 12:11:00,28.5,24.3,29.90,WSW,250,4.0,20.0,84,0.00,,---,0.00,VWS V14.00,2013-02-23 17:11:00,
2013-02-23 12:12:00,28.5,24.3,29.90,WSW,240,6.0,20.0,84,0.00,,---,0.00,VWS V14.00,2013-02-23 17:12:00,
2013-02-23 12:13:00,28.6,24.4,29.90,WNW,283,6.0,20.0,84,0.00,,---,0.00,VWS V14.00,2013-02-23 17:13:00,
2013-02-23 12:14:00,28.6,24.4,29.90,West,263,5.0,20.0,84,0.00,,---,0.00,VWS V14.00,2013-02-23 17:14:00,
2013-02-23 12:17:00,28.7,24.5,29.90,WSW,248,9.0,20.0,84,0.00,,---,0.00,VWS V14.00,2013-02-23 17:17:00,
2013-02-23 12:19:00,28.6,24.4,29.90,West,271,5.0,20.0,84,0.00,,---,0.00,VWS V14.00,2013-02-23 17:19:00,
2013-02-23 12:23:00,28.7,24.5,29.90,WSW,238,7.0,20.0,84,0.00,,---,0.00,VWS V14.00,2013-02-23 17:23:00,
2013-02-23 12:24:00,28.7,24.5,29.90,West,269,3.0,20.0,84,0.00,,---,0.00,VWS V14.00,2013-02-23 17:24:00,
2013-02-23 12:25:00,28.7,24.5,29.90,WSW,250,2.0,20.0,84,0.00,,---,0.00,VWS V14.00,2013-02-23 17:25:00,
2013-02-23 12:28:00,28.8,24.6,29.90,West,271,1.0,20.0,84,0.00,,---,0.00,VWS V14.00,2013-02-23 17:28:00,
2013-02-23 12:29:00,28.9,24.7,29.90,West,263,1.0,3.0,84,0.00,,---,0.00,VWS V14.00,2013-02-23 17:29:00,
2013-02-23 12:30:00,28.9,24.7,29.90,West,264,5.0,10.0,84,0.00,,---,0.00,VWS V14.00,2013-02-23 17:30:00,
2013-02-23 12:33:00,29.0,24.8,29.90,WSW,257,10.0,20.0,84,0.00,,---,0.00,VWS V14.00,2013-02-23 17:33:00,
2013-02-23 12:34:00,28.9,24.4,29.90,West,260,4.0,20.0,83,0.00,,---,0.00,VWS V14.00,2013-02-23 17:34:00,
2013-02-23 12:35:00,28.9,24.4,29.90,WSW,250,5.0,20.0,83,0.00,,---,0.00,VWS V14.00,2013-02-23 17:35:00,
2013-02-23 12:36:00,28.9,24.4,29.90,WNW,288,10.0,20.0,83,0.00,,---,0.00,VWS V14.00,2013-02-23 17:36:00,
2013-02-23 12:40:00,28.9,24.4,29.90,SW,232,4.0,20.0,83,0.00,,---,0.00,VWS V14.00,2013-02-23 17:40:00,
2013-02-23 12:41:00,28.9,24.4,29.90,WSW,237,4.0,20.0,83,0.00,,---,0.00,VWS V14.00,2013-02-23 17:41:00,
2013-02-23 12:42:00,28.8,24.3,29.90,West,269,4.0,20.0,83,0.00,,---,0.00,VWS V14.00,2013-02-23 17:42:00,
2013-02-23 12:46:00,28.8,24.3,29.90,West,272,6.0,20.0,83,0.00,,---,0.00,VWS V14.00,2013-02-23 17:46:00,
2013-02-23 12:47:00,28.8,24.3,29.90,SW,227,1.0,20.0,83,0.00,,---,0.00,VWS V14.00,2013-02-23 17:47:00,
2013-02-23 12:48:00,28.8,24.3,29.90,West,269,5.0,20.0,83,0.00,,---,0.00,VWS V14.00,2013-02-23 17:48:00,
2013-02-23 12:49:00,28.8,24.3,29.90,West,261,6.0,20.0,83,0.00,,---,0.00,VWS V14.00,2013-02-23 17:49:00,
2013-02-23 12:52:00,28.8,24.3,29.90,WSW,256,3.0,20.0,83,0.00,,---,0.00,VWS V14.00,2013-02-23 17:52:00,
2013-02-23 12:54:00,28.9,24.4,29.90,WNW,292,4.0,20.0,83,0.00,,---,0.00,VWS V14.00,2013-02-23 17:54:00,
2013-02-23 12:57:00,29.0,24.5,29.90,WNW,286,6.0,20.0,83,0.00,,---,0.00,VWS V14.00,2013-02-23 17:57:00,
2013-02-23 12:58:00,29.1,24.6,29.90,WNW,295,7.0,20.0,83,0.00,,---,0.00,VWS V14.00,2013-02-23 17:58:00,
2013-02-23 12:59:00,29.1,24.6,29.89,WNW,294,6.0,10.0,83,0.00,,---,0.00,VWS V14.00,2013-02-23 17:59:00,
2013-02-23 13:02:00,29.2,24.4,29.89,West,273,11.0,11.0,82,0.00,,---,0.00,VWS V14.00,2013-02-23 18:02:00,
2013-02-23 13:03:00,29.2,24.4,29.89,West,264,6.0,15.0,82,0.00,,---,0.00,VWS V14.00,2013-02-23 18:03:00,
2013-02-23 13:04:00,29.0,24.2,29.89,West,268,3.0,15.0,82,0.00,,---,0.00,VWS V14.00,2013-02-23 18:04:00,
2013-02-23 13:05:00,29.0,24.2,29.89,West,271,5.0,15.0,82,0.00,,---,0.00,VWS V14.00,2013-02-23 18:05:00,
2013-02-23 13:08:00,29.1,24.3,29.89,West,264,1.0,15.0,82,0.00,,---,0.00,VWS V14.00,2013-02-23 18:08:00,
2013-02-23 13:09:00,29.2,24.4,29.89,WSW,238,4.0,15.0,82,0.00,,---,0.00,VWS V14.00,2013-02-23 18:09:00,
2013-02-23 13:10:00,29.1,24.3,29.89,West,275,4.0,15.0,82,0.00,,---,0.00,VWS V14.00,2013-02-23 18:10:00,
2013-02-23 13:11:00,29.1,24.3,29.89,West,275,8.0,15.0,82,0.00,,---,0.00,VWS V14.00,2013-02-23 18:11:00,
2013-02-23 13:14:00,29.1,24.0,29.89,WNW,288,7.0,15.0,81,0.00,,---,0.00,VWS V14.00,2013-02-23 18:14:00,
2013-02-23 13:15:00,29.1,24.0,29.89,West,273,16.0,20.0,81,0.00,,---,0.00,VWS V14.00,2013-02-23 18:15:00,
2013-02-23 13:16:00,29.1,24.0,29.89,WNW,285,13.0,20.0,81,0.00,,---,0.00,VWS V14.00,2013-02-23 18:16:00,
2013-02-23 13:17:00,29.1,24.0,29.89,West,278,9.0,20.0,81,0.00,,---,0.00,VWS V14.00,2013-02-23 18:17:00,
2013-02-23 13:19:00,29.1,24.0,29.89,WSW,249,7.0,20.0,81,0.00,,---,0.00,VWS V14.00,2013-02-23 18:19:00,
2013-02-23 13:21:00,29.2,24.1,29.89,West,265,7.0,20.0,81,0.00,,---,0.00,VWS V14.00,2013-02-23 18:21:00,
2013-02-23 13:22:00,29.1,23.7,29.89,WNW,286,7.0,20.0,80,0.00,,---,0.00,VWS V14.00,2013-02-23 18:22:00,
2013-02-23 13:26:00,29.0,23.6,29.89,West,261,5.0,20.0,80,0.00,,---,0.00,VWS V14.00,2013-02-23 18:26:00,
2013-02-23 13:27:00,29.2,23.8,29.88,West,263,3.0,20.0,80,0.00,,---,0.00,VWS V14.00,2013-02-23 18:27:00,
2013-02-23 13:29:00,29.2,24.1,29.88,WNW,286,4.0,4.0,81,0.00,,---,0.00,VWS V14.00,2013-02-23 18:29:00,
2013-02-23 13:32:00,29.3,23.9,29.88,NW,309,11.0,16.0,80,0.00,,---,0.00,VWS V14.00,2013-02-23 18:32:00,
2013-02-23 13:33:00,29.4,24.0,29.88,WNW,285,3.0,16.0,80,0.00,,---,0.00,VWS V14.00,2013-02-23 18:33:00,
2013-02-23 13:35:00,29.5,23.8,29.88,West,263,2.0,16.0,79,0.00,,---,0.00,VWS V14.00,2013-02-23 18:35:00,
2013-02-23 13:38:00,29.7,24.3,29.88,NW,307,8.0,16.0,80,0.00,,---,0.00,VWS V14.00,2013-02-23 18:38:00,
2013-02-23 13:39:00,29.7,24.3,29.88,West,281,7.0,16.0,80,0.00,,---,0.00,VWS V14.00,2013-02-23 18:39:00,
2013-02-23 13:41:00,29.6,24.2,29.88,West,261,5.0,16.0,80,0.00,,---,0.00,VWS V14.00,2013-02-23 18:41:00,
2013-02-23 13:43:00,29.4,24.0,29.88,West,273,9.0,16.0,80,0.00,,---,0.00,VWS V14.00,2013-02-23 18:43:00,
2013-02-23 13:44:00,29.4,24.0,29.88,West,273,5.0,16.0,80,0.00,,---,0.00,VWS V14.00,2013-02-23 18:44:00,
2013-02-23 13:45:00,29.3,23.9,29.88,West,271,7.0,16.0,80,0.00,,---,0.00,VWS V14.00,2013-02-23 18:45:00,
2013-02-23 13:47:00,29.3,23.9,29.88,WSW,252,7.0,16.0,80,0.00,,---,0.00,VWS V14.00,2013-02-23 18:47:00,
2013-02-23 13:49:00,29.2,23.8,29.88,NW,313,3.0,16.0,80,0.00,,---,0.00,VWS V14.00,2013-02-23 18:49:00,
2013-02-23 13:50:00,29.3,23.9,29.88,WNW,300,7.0,16.0,80,0.00,,---,0.00,VWS V14.00,2013-02-23 18:50:00,
2013-02-23 13:52:00,29.4,24.3,29.88,West,271,7.0,16.0,81,0.00,,---,0.00,VWS V14.00,2013-02-23 18:52:00,
2013-02-23 13:53:00,29.5,24.4,29.88,WNW,287,7.0,16.0,81,0.00,,---,0.00,VWS V14.00,2013-02-23 18:53:00,
2013-02-23 13:56:00,29.5,24.1,29.88,WNW,284,3.0,16.0,80,0.00,,---,0.00,VWS V14.00,2013-02-23 18:56:00,
2013-02-23 13:57:00,29.6,24.5,29.88,NW,307,3.0,16.0,81,0.00,,---,0.00,VWS V14.00,2013-02-23 18:57:00,
2013-02-23 13:59:00,29.6,24.5,29.88,WNW,302,5.0,9.0,81,0.00,,---,0.00,VWS V14.00,2013-02-23 18:59:00,
2013-02-23 14:01:00,29.6,24.5,29.88,WNW,296,4.0,11.0,81,0.00,,---,0.00,VWS V14.00,2013-02-23 19:01:00,
2013-02-23 14:03:00,29.7,24.3,29.88,West,268,4.0,11.0,80,0.00,,---,0.00,VWS V14.00,2013-02-23 19:03:00,
2013-02-23 14:05:00,29.6,24.2,29.88,WSW,257,7.0,11.0,80,0.00,,---,0.00,VWS V14.00,2013-02-23 19:05:00,
2013-02-23 14:08:00,29.4,23.7,29.88,West,265,9.0,20.0,79,0.00,,---,0.00,VWS V14.00,2013-02-23 19:08:00,
2013-02-23 14:09:00,29.3,23.6,29.88,West,275,5.0,20.0,79,0.00,,---,0.00,VWS V14.00,2013-02-23 19:09:00,
2013-02-23 14:10:00,29.3,23.6,29.88,West,271,7.0,20.0,79,0.00,,---,0.00,VWS V14.00,2013-02-23 19:10:00,
2013-02-23 14:11:00,29.2,23.5,29.88,West,271,14.0,20.0,79,0.00,,---,0.00,VWS V14.00,2013-02-23 19:11:00,
2013-02-23 14:15:00,29.2,23.5,29.88,West,263,4.0,20.0,79,0.00,,---,0.00,VWS V14.00,2013-02-23 19:15:00,
2013-02-23 14:16:00,29.2,23.5,29.88,West,263,2.0,20.0,79,0.00,,---,0.00,VWS V14.00,2013-02-23 19:16:00,
2013-02-23 14:18:00,29.2,23.5,29.88,WNW,290,6.0,20.0,79,0.00,,---,0.00,VWS V14.00,2013-02-23 19:18:00,
2013-02-23 14:22:00,29.2,23.5,29.88,West,271,5.0,20.0,79,0.00,,---,0.00,VWS V14.00,2013-02-23 19:22:00,
2013-02-23 14:23:00,29.2,23.5,29.88,WSW,254,14.0,20.0,79,0.00,,---,0.00,VWS V14.00,2013-02-23 19:23:00,
2013-02-23 14:27:00,29.2,23.5,29.88,West,259,3.0,20.0,79,0.00,,---,0.00,VWS V14.00,2013-02-23 19:27:00,
2013-02-23 14:29:00,29.2,23.5,29.88,WNW,288,5.0,5.0,79,0.00,,---,0.00,VWS V14.00,2013-02-23 19:29:00,
2013-02-23 14:32:00,29.4,23.7,29.87,West,265,2.0,13.0,79,0.00,,---,0.00,VWS V14.00,2013-02-23 19:32:00,
2013-02-23 14:33:00,29.4,23.7,29.87,WNW,303,4.0,13.0,79,0.00,,---,0.00,VWS V14.00,2013-02-23 19:33:00,
2013-02-23 14:34:00,29.4,23.7,29.87,West,275,4.0,13.0,79,0.00,,---,0.00,VWS V14.00,2013-02-23 19:34:00,
2013-02-23 14:35:00,29.4,23.7,29.87,West,273,3.0,13.0,79,0.00,,---,0.00,VWS V14.00,2013-02-23 19:35:00,
2013-02-23 14:37:00,29.5,24.1,29.87,West,265,3.0,13.0,80,0.00,,---,0.00,VWS V14.00,2013-02-23 19:37:00,
2013-02-23 14:38:00,29.5,24.1,29.87,West,266,2.0,13.0,80,0.00,,---,0.00,VWS V14.00,2013-02-23 19:38:00,
2013-02-23 14:40:00,29.4,24.0,29.87,West,276,5.0,13.0,80,0.00,,---,0.00,VWS V14.00,2013-02-23 19:40:00,
2013-02-23 14:43:00,29.3,23.9,29.87,West,275,10.0,16.0,80,0.00,,---,0.00,VWS V14.00,2013-02-23 19:43:00,
2013-02-23 14:44:00,29.3,23.9,29.87,West,281,9.0,16.0,80,0.00,,---,0.00,VWS V14.00,2013-02-23 19:44:00,
2013-02-23 14:45:00,29.2,23.8,29.87,WSW,257,1.0,16.0,80,0.00,,---,0.00,VWS V14.00,2013-02-23 19:45:00,
2013-02-23 14:46:00,29.2,23.8,29.87,West,268,2.0,16.0,80,0.00,,---,0.00,VWS V14.00,2013-02-23 19:46:00,
2013-02-23 14:49:00,29.2,23.8,29.87,West,272,6.0,16.0,80,0.00,,---,0.00,VWS V14.00,2013-02-23 19:49:00,
2013-02-23 14:50:00,29.2,23.8,29.87,West,280,5.0,16.0,80,0.00,,---,0.00,VWS V14.00,2013-02-23 19:50:00,
2013-02-23 14:51:00,29.2,23.8,29.87,WSW,249,5.0,16.0,80,0.00,,---,0.00,VWS V14.00,2013-02-23 19:51:00,
2013-02-23 14:55:00,29.4,24.0,29.87,NW,304,4.0,16.0,80,0.00,,---,0.00,VWS V14.00,2013-02-23 19:55:00,
2013-02-23 14:57:00,29.5,24.1,29.87,WNW,301,5.0,16.0,80,0.00,,---,0.00,VWS V14.00,2013-02-23 19:57:00,
2013-02-23 14:59:00,29.6,24.2,29.87,West,270,3.0,10.0,80,0.00,,---,0.00,VWS V14.00,2013-02-23 19:59:00,
2013-02-23 15:01:00,29.7,24.3,29.87,West,273,1.0,10.0,80,0.00,,---,0.00,VWS V14.00,2013-02-23 20:01:00,
2013-02-23 15:02:00,29.7,24.3,29.87,West,265,2.0,10.0,80,0.00,,---,0.00,VWS V14.00,2013-02-23 20:02:00,
2013-02-23 15:03:00,29.7,24.0,29.87,West,279,6.0,10.0,79,0.00,,---,0.00,VWS V14.00,2013-02-23 20:03:00,
2013-02-23 15:04:00,29.8,24.1,29.87,West,275,4.0,10.0,79,0.00,,---,0.00,VWS V14.00,2013-02-23 20:04:00,
2013-02-23 15:06:00,29.8,24.1,29.87,WNW,300,4.0,10.0,79,0.00,,---,0.00,VWS V14.00,2013-02-23 20:06:00,
2013-02-23 15:07:00,29.8,24.1,29.87,WNW,299,6.0,11.0,79,0.00,,---,0.00,VWS V14.00,2013-02-23 20:07:00,
2013-02-23 15:08:00,29.8,24.1,29.88,West,281,10.0,11.0,79,0.00,,---,0.00,VWS V14.00,2013-02-23 20:08:00,
2013-02-23 15:10:00,29.8,24.1,29.87,WNW,283,2.0,11.0,79,0.00,,---,0.00,VWS V14.00,2013-02-23 20:10:00,
2013-02-23 15:14:00,29.7,24.0,29.88,NW,310,1.0,11.0,79,0.00,,---,0.00,VWS V14.00,2013-02-23 20:14:00,
2013-02-23 15:16:00,29.7,24.0,29.88,WNW,288,4.0,11.0,79,0.00,,---,0.00,VWS V14.00,2013-02-23 20:16:00,
2013-02-23 15:17:00,29.7,24.0,29.88,West,279,4.0,11.0,79,0.00,,---,0.00,VWS V14.00,2013-02-23 20:17:00,
2013-02-23 15:20:00,29.6,23.9,29.88,West,281,5.0,11.0,79,0.00,,---,0.00,VWS V14.00,2013-02-23 20:20:00,
2013-02-23 15:21:00,29.6,23.9,29.88,West,269,4.0,11.0,79,0.00,,---,0.00,VWS V14.00,2013-02-23 20:21:00,
2013-02-23 15:24:00,29.5,23.5,29.88,West,265,7.0,11.0,78,0.00,,---,0.00,VWS V14.00,2013-02-23 20:24:00,
2013-02-23 15:25:00,29.4,23.4,29.88,West,272,8.0,11.0,78,0.00,,---,0.00,VWS V14.00,2013-02-23 20:25:00,
2013-02-23 15:26:00,29.3,23.3,29.88,WNW,295,6.0,11.0,78,0.00,,---,0.00,VWS V14.00,2013-02-23 20:26:00,
2013-02-23 15:27:00,29.2,23.2,29.88,West,273,6.0,16.0,78,0.00,,---,0.00,VWS V14.00,2013-02-23 20:27:00,
2013-02-23 15:29:00,29.1,23.4,29.88,West,264,7.0,9.0,79,0.00,,---,0.00,VWS V14.00,2013-02-23 20:29:00,
2013-02-23 15:31:00,29.0,23.3,29.88,WNW,289,4.0,9.0,79,0.00,,---,0.00,VWS V14.00,2013-02-23 20:31:00,
2013-02-23 15:33:00,29.0,23.3,29.88,West,264,6.0,9.0,79,0.00,,---,0.00,VWS V14.00,2013-02-23 20:33:00,
2013-02-23 15:35:00,29.0,23.3,29.88,West,276,4.0,9.0,79,0.00,,---,0.00,VWS V14.00,2013-02-23 20:35:00,
2013-02-23 15:36:00,29.0,23.3,29.88,West,259,5.0,9.0,79,0.00,,---,0.00,VWS V14.00,2013-02-23 20:36:00,
2013-02-23 15:38:00,29.0,23.3,29.88,West,271,1.0,9.0,79,0.00,,---,0.00,VWS V14.00,2013-02-23 20:38:00,
2013-02-23 15:40:00,28.9,23.2,29.88,West,277,11.0,12.0,79,0.00,,---,0.00,VWS V14.00,2013-02-23 20:40:00,
2013-02-23 15:41:00,28.9,23.2,29.88,WSW,255,7.0,12.0,79,0.00,,---,0.00,VWS V14.00,2013-02-23 20:41:00,
2013-02-23 15:42:00,28.8,23.1,29.88,WNW,285,15.0,15.0,79,0.00,,---,0.00,VWS V14.00,2013-02-23 20:42:00,
2013-02-23 15:43:00,28.8,23.1,29.88,West,275,12.0,15.0,79,0.00,,---,0.00,VWS V14.00,2013-02-23 20:43:00,
2013-02-23 15:45:00,28.6,23.2,29.88,WNW,286,3.0,15.0,80,0.00,,---,0.00,VWS V14.00,2013-02-23 20:45:00,
2013-02-23 15:46:00,28.6,23.2,29.88,WNW,287,4.0,15.0,80,0.00,,---,0.00,VWS V14.00,2013-02-23 20:46:00,
2013-02-23 15:47:00,28.6,23.2,29.88,West,280,11.0,15.0,80,0.00,,---,0.00,VWS V14.00,2013-02-23 20:47:00,
2013-02-23 15:48:00,28.6,23.2,29.88,West,270,7.0,15.0,80,0.00,,---,0.00,VWS V14.00,2013-02-23 20:48:00,
2013-02-23 15:51:00,28.5,23.4,29.88,West,261,5.0,15.0,81,0.00,,---,0.00,VWS V14.00,2013-02-23 20:51:00,
2013-02-23 15:53:00,28.5,23.4,29.88,West,273,7.0,15.0,81,0.00,,---,0.00,VWS V14.00,2013-02-23 20:53:00,
2013-02-23 15:55:00,28.5,23.4,29.88,West,269,4.0,15.0,81,0.00,,---,0.00,VWS V14.00,2013-02-23 20:55:00,
2013-02-23 15:58:00,28.5,23.4,29.88,West,275,1.0,15.0,81,0.00,,---,0.00,VWS V14.00,2013-02-23 20:58:00,
2013-02-23 15:59:00,28.5,23.4,29.88,West,275,3.0,4.0,81,0.00,,---,0.00,VWS V14.00,2013-02-23 20:59:00,
2013-02-23 16:00:00,28.5,23.7,29.88,NW,309,5.0,6.0,82,0.00,,---,0.00,VWS V14.00,2013-02-23 21:00:00,
2013-02-23 16:01:00,28.5,23.7,29.88,West,271,5.0,9.0,82,0.00,,---,0.00,VWS V14.00,2013-02-23 21:01:00,
2013-02-23 16:03:00,28.5,23.7,29.88,WNW,299,2.0,9.0,82,0.00,,---,0.00,VWS V14.00,2013-02-23 21:03:00,
2013-02-23 16:05:00,28.5,24.0,29.88,WNW,286,1.0,9.0,83,0.00,,---,0.00,VWS V14.00,2013-02-23 21:05:00,
2013-02-23 16:06:00,28.5,24.0,29.88,West,275,4.0,9.0,83,0.00,,---,0.00,VWS V14.00,2013-02-23 21:06:00,
2013-02-23 16:08:00,28.6,24.1,29.88,West,275,0.0,9.0,83,0.00,,---,0.00,VWS V14.00,2013-02-23 21:08:00,
2013-02-23 16:09:00,28.6,24.1,29.88,West,273,1.0,9.0,83,0.00,,---,0.00,VWS V14.00,2013-02-23 21:09:00,
2013-02-23 16:13:00,28.7,24.2,29.88,West,275,2.0,9.0,83,0.00,,---,0.00,VWS V14.00,2013-02-23 21:13:00,
2013-02-23 16:15:00,28.7,24.2,29.88,WSW,248,3.0,10.0,83,0.00,,---,0.00,VWS V14.00,2013-02-23 21:15:00,
2013-02-23 16:16:00,28.6,24.1,29.89,West,271,6.0,10.0,83,0.00,,---,0.00,VWS V14.00,2013-02-23 21:16:00,
2013-02-23 16:18:00,28.5,24.0,29.89,West,260,3.0,10.0,83,0.00,,---,0.00,VWS V14.00,2013-02-23 21:18:00,
2013-02-23 16:20:00,28.5,24.0,29.89,WNW,286,4.0,10.0,83,0.00,,---,0.00,VWS V14.00,2013-02-23 21:20:00,
2013-02-23 16:21:00,28.5,24.0,29.89,WSW,248,5.0,10.0,83,0.00,,---,0.00,VWS V14.00,2013-02-23 21:21:00,
2013-02-23 16:23:00,28.3,23.8,29.89,West,271,2.0,10.0,83,0.00,,---,0.00,VWS V14.00,2013-02-23 21:23:00,
2013-02-23 16:25:00,28.2,24.0,29.89,WSW,246,3.0,10.0,84,0.00,,---,0.00,VWS V14.00,2013-02-23 21:25:00,
2013-02-23 16:26:00,28.2,24.0,29.89,West,272,4.0,10.0,84,0.00,,---,0.00,VWS V14.00,2013-02-23 21:26:00,
2013-02-23 16:28:00,28.1,23.9,29.89,West,279,4.0,10.0,84,0.00,,---,0.00,VWS V14.00,2013-02-23 21:28:00,
2013-02-23 16:29:00,28.1,23.9,29.89,West,265,3.0,6.0,84,0.00,,---,0.00,VWS V14.00,2013-02-23 21:29:00,
2013-02-23 16:31:00,28.1,23.9,29.89,West,265,2.0,6.0,84,0.00,,---,0.00,VWS V14.00,2013-02-23 21:31:00,
2013-02-23 16:32:00,28.1,23.9,29.89,WNW,299,3.0,7.0,84,0.00,,---,0.00,VWS V14.00,2013-02-23 21:32:00,
2013-02-23 16:34:00,28.1,23.9,29.89,WNW,291,2.0,7.0,84,0.00,,---,0.00,VWS V14.00,2013-02-23 21:34:00,
2013-02-23 16:35:00,28.1,23.9,29.89,West,267,3.0,7.0,84,0.00,,---,0.00,VWS V14.00,2013-02-23 21:35:00,
2013-02-23 16:37:00,28.0,24.1,29.89,West,265,3.0,7.0,85,0.00,,---,0.00,VWS V14.00,2013-02-23 21:37:00,
2013-02-23 16:38:00,28.0,23.8,29.89,WSW,239,2.0,7.0,84,0.00,,---,0.00,VWS V14.00,2013-02-23 21:38:00,
2013-02-23 16:39:00,28.0,23.8,29.89,West,275,5.0,7.0,84,0.00,,---,0.00,VWS V14.00,2013-02-23 21:39:00,
2013-02-23 16:42:00,27.9,24.0,29.89,West,264,1.0,7.0,85,0.00,,---,0.00,VWS V14.00,2013-02-23 21:42:00,
2013-02-23 16:44:00,27.9,24.0,29.89,West,272,2.0,10.0,85,0.00,,---,0.00,VWS V14.00,2013-02-23 21:44:00,
2013-02-23 16:45:00,27.8,23.9,29.89,West,281,2.0,10.0,85,0.00,,---,0.00,VWS V14.00,2013-02-23 21:45:00,
2013-02-23 16:48:00,27.8,23.9,29.89,West,269,3.0,10.0,85,0.00,,---,0.00,VWS V14.00,2013-02-23 21:48:00,
2013-02-23 16:49:00,27.8,23.9,29.89,West,260,5.0,10.0,85,0.00,,---,0.00,VWS V14.00,2013-02-23 21:49:00,
2013-02-23 16:51:00,27.8,23.9,29.89,WNW,295,2.0,10.0,85,0.00,,---,0.00,VWS V14.00,2013-02-23 21:51:00,
2013-02-23 16:53:00,27.8,23.9,29.89,WSW,250,2.0,10.0,85,0.00,,---,0.00,VWS V14.00,2013-02-23 21:53:00,
2013-02-23 16:54:00,27.8,23.9,29.89,West,279,0.0,10.0,85,0.00,,---,0.00,VWS V14.00,2013-02-23 21:54:00,
2013-02-23 16:56:00,27.8,23.9,29.89,West,266,5.0,10.0,85,0.00,,---,0.00,VWS V14.00,2013-02-23 21:56:00,
2013-02-23 16:57:00,27.8,23.9,29.89,West,268,2.0,10.0,85,0.00,,---,0.00,VWS V14.00,2013-02-23 21:57:00,
2013-02-23 17:00:00,27.8,23.9,29.89,West,269,2.0,10.0,85,0.00,,---,0.00,VWS V14.00,2013-02-23 22:00:00,
2013-02-23 17:01:00,27.8,23.9,29.89,West,269,1.0,10.0,85,0.00,,---,0.00,VWS V14.00,2013-02-23 22:01:00,
2013-02-23 17:06:00,27.7,23.8,29.89,WSW,252,4.0,11.0,85,0.00,,---,0.00,VWS V14.00,2013-02-23 22:06:00,
2013-02-23 17:09:00,27.7,24.1,29.89,West,269,6.0,11.0,86,0.00,,---,0.00,VWS V14.00,2013-02-23 22:09:00,
2013-02-23 17:12:00,27.7,24.1,29.89,West,265,1.0,11.0,86,0.00,,---,0.00,VWS V14.00,2013-02-23 22:12:00,
2013-02-23 17:13:00,27.7,24.1,29.89,West,262,5.0,11.0,86,0.00,,---,0.00,VWS V14.00,2013-02-23 22:13:00,
2013-02-23 17:15:00,27.6,24.0,29.89,West,273,2.0,11.0,86,0.00,,---,0.00,VWS V14.00,2013-02-23 22:15:00,
2013-02-23 17:18:00,27.5,23.9,29.89,WSW,257,9.0,12.0,86,0.00,,---,0.00,VWS V14.00,2013-02-23 22:18:00,
2013-02-23 17:19:00,27.5,23.9,29.89,West,263,4.0,12.0,86,0.00,,---,0.00,VWS V14.00,2013-02-23 22:19:00,
2013-02-23 17:20:00,27.4,23.8,29.89,West,276,4.0,12.0,86,0.00,,---,0.00,VWS V14.00,2013-02-23 22:20:00,
2013-02-23 17:23:00,27.4,23.8,29.90,West,274,4.0,12.0,86,0.00,,---,0.00,VWS V14.00,2013-02-23 22:23:00,
2013-02-23 17:25:00,27.3,23.7,29.90,West,267,4.0,12.0,86,0.00,,---,0.00,VWS V14.00,2013-02-23 22:25:00,
2013-02-23 17:26:00,27.3,23.7,29.90,WSW,245,4.0,12.0,86,0.00,,---,0.00,VWS V14.00,2013-02-23 22:26:00,
2013-02-23 17:30:00,27.3,23.7,29.90,West,265,1.0,4.0,86,0.00,,---,0.00,VWS V14.00,2013-02-23 22:30:00,
2013-02-23 17:31:00,27.4,23.8,29.90,West,267,3.0,4.0,86,0.00,,---,0.00,VWS V14.00,2013-02-23 22:31:00,
2013-02-23 17:32:00,27.4,24.0,29.90,West,269,3.0,4.0,87,0.00,,---,0.00,VWS V14.00,2013-02-23 22:32:00,
2013-02-23 17:35:00,27.4,24.0,29.90,WSW,253,7.0,7.0,87,0.00,,---,0.00,VWS V14.00,2013-02-23 22:35:00,
2013-02-23 17:37:00,27.4,24.0,29.90,West,281,6.0,9.0,87,0.00,,---,0.00,VWS V14.00,2013-02-23 22:37:00,
2013-02-23 17:38:00,27.4,24.0,29.90,WSW,252,1.0,9.0,87,0.00,,---,0.00,VWS V14.00,2013-02-23 22:38:00,
2013-02-23 17:40:00,27.4,23.8,29.90,West,265,4.0,9.0,86,0.00,,---,0.00,VWS V14.00,2013-02-23 22:40:00,
2013-02-23 17:41:00,27.4,23.8,29.90,West,261,3.0,9.0,86,0.00,,---,0.00,VWS V14.00,2013-02-23 22:41:00,
2013-02-23 17:42:00,27.4,23.8,29.90,West,260,4.0,9.0,86,0.00,,---,0.00,VWS V14.00,2013-02-23 22:42:00,
2013-02-23 17:45:00,27.4,23.8,29.90,West,280,13.0,13.0,86,0.00,,---,0.00,VWS V14.00,2013-02-23 22:45:00,
2013-02-23 17:47:00,27.4,23.8,29.90,WNW,289,4.0,13.0,86,0.00,,---,0.00,VWS V14.00,2013-02-23 22:47:00,
2013-02-23 17:48:00,27.4,23.8,29.90,West,274,7.0,13.0,86,0.00,,---,0.00,VWS V14.00,2013-02-23 22:48:00,
2013-02-23 17:52:00,27.4,23.5,29.90,West,269,14.0,14.0,85,0.00,,---,0.00,VWS V14.00,2013-02-23 22:52:00,
2013-02-23 17:53:00,27.4,23.5,29.90,West,265,10.0,14.0,85,0.00,,---,0.00,VWS V14.00,2013-02-23 22:53:00,
2013-02-23 17:55:00,27.4,23.5,29.90,West,273,2.0,14.0,85,0.00,,---,0.00,VWS V14.00,2013-02-23 22:55:00,
2013-02-23 17:58:00,27.4,23.5,29.90,West,269,9.0,14.0,85,0.00,,---,0.00,VWS V14.00,2013-02-23 22:58:00,
2013-02-23 18:00:00,27.4,23.2,29.90,WSW,258,3.0,7.0,84,0.00,,---,0.00,VWS V14.00,2013-02-23 23:00:00,
2013-02-23 18:01:00,27.4,23.5,29.90,West,263,1.0,7.0,85,0.00,,---,0.00,VWS V14.00,2013-02-23 23:01:00,
2013-02-23 18:04:00,27.4,23.2,29.91,West,263,3.0,10.0,84,0.00,,---,0.00,VWS V14.00,2013-02-23 23:04:00,
2013-02-23 18:06:00,27.4,23.2,29.91,West,273,6.0,11.0,84,0.00,,---,0.00,VWS V14.00,2013-02-23 23:06:00,
2013-02-23 18:07:00,27.4,23.2,29.91,West,267,6.0,11.0,84,0.00,,---,0.00,VWS V14.00,2013-02-23 23:07:00,
2013-02-23 18:09:00,27.4,23.2,29.91,NW,309,6.0,11.0,84,0.00,,---,0.00,VWS V14.00,2013-02-23 23:09:00,
2013-02-23 18:11:00,27.4,22.9,29.91,West,259,2.0,11.0,83,0.00,,---,0.00,VWS V14.00,2013-02-23 23:11:00,
2013-02-23 18:14:00,27.4,22.9,29.91,West,269,2.0,11.0,83,0.00,,---,0.00,VWS V14.00,2013-02-23 23:14:00,
2013-02-23 18:16:00,27.4,22.9,29.91,West,268,2.0,14.0,83,0.00,,---,0.00,VWS V14.00,2013-02-23 23:16:00,
2013-02-23 18:17:00,27.4,22.9,29.91,West,263,12.0,14.0,83,0.00,,---,0.00,VWS V14.00,2013-02-23 23:17:00,
2013-02-23 18:18:00,27.4,22.9,29.91,West,260,6.0,14.0,83,0.00,,---,0.00,VWS V14.00,2013-02-23 23:18:00,
2013-02-23 18:19:00,27.4,22.6,29.91,West,261,3.0,14.0,82,0.00,,---,0.00,VWS V14.00,2013-02-23 23:19:00,
2013-02-23 18:22:00,27.4,22.6,29.91,West,268,6.0,14.0,82,0.00,,---,0.00,VWS V14.00,2013-02-23 23:22:00,
2013-02-23 18:23:00,27.5,22.7,29.91,West,261,5.0,16.0,82,0.00,,---,0.00,VWS V14.00,2013-02-23 23:23:00,
2013-02-23 18:26:00,27.5,22.5,29.91,West,261,4.0,16.0,81,0.00,,---,0.00,VWS V14.00,2013-02-23 23:26:00,
2013-02-23 18:27:00,27.5,22.5,29.91,West,266,3.0,16.0,81,0.00,,---,0.00,VWS V14.00,2013-02-23 23:27:00,
2013-02-23 18:28:00,27.5,22.5,29.91,West,266,2.0,16.0,81,0.00,,---,0.00,VWS V14.00,2013-02-23 23:28:00,
2013-02-23 18:29:00,27.5,22.5,29.91,West,267,3.0,6.0,81,0.00,,---,0.00,VWS V14.00,2013-02-23 23:29:00,
2013-02-23 18:31:00,27.5,22.1,29.91,West,270,1.0,6.0,80,0.00,,---,0.00,VWS V14.00,2013-02-23 23:31:00,
2013-02-23 18:33:00,27.5,22.1,29.91,West,267,2.0,6.0,80,0.00,,---,0.00,VWS V14.00,2013-02-23 23:33:00,
2013-02-23 18:37:00,27.5,22.1,29.91,WSW,257,3.0,8.0,80,0.00,,---,0.00,VWS V14.00,2013-02-23 23:37:00,
2013-02-23 18:38:00,27.6,22.2,29.91,West,269,2.0,8.0,80,0.00,,---,0.00,VWS V14.00,2013-02-23 23:38:00,
2013-02-23 18:43:00,27.6,22.2,29.91,West,265,2.0,8.0,80,0.00,,---,0.00,VWS V14.00,2013-02-23 23:43:00,
2013-02-23 18:44:00,27.6,22.2,29.91,West,277,9.0,9.0,80,0.00,,---,0.00,VWS V14.00,2013-02-23 23:44:00,
2013-02-23 18:46:00,27.5,22.1,29.91,West,269,5.0,9.0,80,0.00,,---,0.00,VWS V14.00,2013-02-23 23:46:00,
2013-02-23 18:48:00,27.5,21.9,29.91,West,259,4.0,9.0,79,0.00,,---,0.00,VWS V14.00,2013-02-23 23:48:00,
2013-02-23 18:49:00,27.5,22.1,29.91,West,281,7.0,9.0,80,0.00,,---,0.00,VWS V14.00,2013-02-23 23:49:00,
2013-02-23 18:50:00,27.5,22.1,29.91,West,275,5.0,9.0,80,0.00,,---,0.00,VWS V14.00,2013-02-23 23:50:00,
2013-02-23 18:53:00,27.5,22.1,29.91,West,269,1.0,9.0,80,0.00,,---,0.00,VWS V14.00,2013-02-23 23:53:00,
2013-02-23 18:55:00,27.5,22.1,29.91,West,259,4.0,9.0,80,0.00,,---,0.00,VWS V14.00,2013-02-23 23:55:00,
2013-02-23 18:56:00,27.5,22.1,29.91,West,270,7.0,9.0,80,0.00,,---,0.00,VWS V14.00,2013-02-23 23:56:00,
2013-02-23 18:58:00,27.4,21.8,29.91,West,267,2.0,9.0,79,0.00,,---,0.00,VWS V14.00,2013-02-23 23:58:00,
2013-02-23 19:01:00,27.4,21.8,29.91,West,269,4.0,6.0,79,0.00,,---,0.00,VWS V14.00,2013-02-24 00:01:00,
2013-02-23 19:02:00,27.4,21.8,29.91,West,265,2.0,6.0,79,0.00,,---,0.00,VWS V14.00,2013-02-24 00:02:00,
2013-02-23 19:05:00,27.4,21.8,29.91,West,271,2.0,6.0,79,0.00,,---,0.00,VWS V14.00,2013-02-24 00:05:00,
2013-02-23 19:07:00,27.4,22.0,29.91,West,263,3.0,6.0,80,0.00,,---,0.00,VWS V14.00,2013-02-24 00:07:00,
2013-02-23 19:08:00,27.4,22.0,29.91,WSW,252,1.0,6.0,80,0.00,,---,0.00,VWS V14.00,2013-02-24 00:08:00,
2013-02-23 19:10:00,27.4,22.0,29.91,WSW,253,2.0,7.0,80,0.00,,---,0.00,VWS V14.00,2013-02-24 00:10:00,
2013-02-23 19:12:00,27.4,22.0,29.91,West,262,3.0,7.0,80,0.00,,---,0.00,VWS V14.00,2013-02-24 00:12:00,
2013-02-23 19:13:00,27.4,22.0,29.91,West,262,2.0,7.0,80,0.00,,---,0.00,VWS V14.00,2013-02-24 00:13:00,
2013-02-23 19:15:00,27.4,22.0,29.92,West,266,5.0,7.0,80,0.00,,---,0.00,VWS V14.00,2013-02-24 00:15:00,
2013-02-23 19:18:00,27.4,22.0,29.92,West,261,2.0,7.0,80,0.00,,---,0.00,VWS V14.00,2013-02-24 00:18:00,
2013-02-23 19:19:00,27.4,22.0,29.92,WSW,250,4.0,7.0,80,0.00,,---,0.00,VWS V14.00,2013-02-24 00:19:00,
2013-02-23 19:20:00,27.4,22.0,29.92,WSW,250,3.0,7.0,80,0.00,,---,0.00,VWS V14.00,2013-02-24 00:20:00,
2013-02-23 19:24:00,27.4,22.0,29.92,West,264,3.0,7.0,80,0.00,,---,0.00,VWS V14.00,2013-02-24 00:24:00,
2013-02-23 19:26:00,27.4,22.0,29.92,West,265,3.0,7.0,80,0.00,,---,0.00,VWS V14.00,2013-02-24 00:26:00,
2013-02-23 19:29:00,27.4,22.0,29.92,West,273,4.0,4.0,80,0.00,,---,0.00,VWS V14.00,2013-02-24 00:29:00,
2013-02-23 19:30:00,27.4,22.0,29.92,WNW,284,6.0,8.0,80,0.00,,---,0.00,VWS V14.00,2013-02-24 00:30:00,
2013-02-23 19:31:00,27.4,22.0,29.92,West,273,1.0,8.0,80,0.00,,---,0.00,VWS V14.00,2013-02-24 00:31:00,
2013-02-23 19:34:00,27.4,22.0,29.92,SW,220,3.0,8.0,80,0.00,,---,0.00,VWS V14.00,2013-02-24 00:34:00,
2013-02-23 19:36:00,27.4,22.0,29.92,WSW,244,1.0,8.0,80,0.00,,---,0.00,VWS V14.00,2013-02-24 00:36:00,
2013-02-23 19:37:00,27.4,22.0,29.92,West,259,3.0,8.0,80,0.00,,---,0.00,VWS V14.00,2013-02-24 00:37:00,
2013-02-23 19:40:00,27.3,22.0,29.92,West,261,2.0,8.0,80,0.00,,---,0.00,VWS V14.00,2013-02-24 00:40:00,
2013-02-23 19:42:00,27.3,22.0,29.92,West,260,0.0,8.0,80,0.00,,---,0.00,VWS V14.00,2013-02-24 00:42:00,
2013-02-23 19:43:00,27.3,22.0,29.92,WSW,257,0.0,8.0,80,0.00,,---,0.00,VWS V14.00,2013-02-24 00:43:00,
2013-02-23 19:45:00,27.3,22.0,29.92,West,269,4.0,8.0,80,0.00,,---,0.00,VWS V14.00,2013-02-24 00:45:00,
2013-02-23 19:47:00,27.2,21.9,29.92,West,264,4.0,10.0,80,0.00,,---,0.00,VWS V14.00,2013-02-24 00:47:00,
2013-02-23 19:50:00,27.2,21.9,29.92,WSW,246,0.0,10.0,80,0.00,,---,0.00,VWS V14.00,2013-02-24 00:50:00,
2013-02-23 19:51:00,27.2,21.9,29.92,WSW,246,1.0,10.0,80,0.00,,---,0.00,VWS V14.00,2013-02-24 00:51:00,
2013-02-23 19:52:00,27.2,21.9,29.93,West,261,3.0,10.0,80,0.00,,---,0.00,VWS V14.00,2013-02-24 00:52:00,
2013-02-23 19:56:00,27.2,22.1,29.92,West,261,1.0,10.0,81,0.00,,---,0.00,VWS V14.00,2013-02-24 00:56:00,
2013-02-23 19:57:00,27.2,22.1,29.92,West,261,1.0,10.0,81,0.00,,---,0.00,VWS V14.00,2013-02-24 00:57:00,
2013-02-23 19:58:00,27.2,22.1,29.92,West,261,1.0,10.0,81,0.00,,---,0.00,VWS V14.00,2013-02-24 00:58:00,
2013-02-23 20:00:00,27.2,22.1,29.93,West,265,2.0,5.0,81,0.00,,---,0.00,VWS V14.00,2013-02-24 01:00:00,
2013-02-23 20:03:00,27.2,22.1,29.92,West,271,0.0,5.0,81,0.00,,---,0.00,VWS V14.00,2013-02-24 01:03:00,
2013-02-23 20:05:00,27.1,22.1,29.92,West,265,2.0,5.0,81,0.00,,---,0.00,VWS V14.00,2013-02-24 01:05:00,
2013-02-23 20:08:00,27.1,22.1,29.92,WSW,256,0.0,5.0,81,0.00,,---,0.00,VWS V14.00,2013-02-24 01:08:00,
2013-02-23 20:09:00,27.1,22.1,29.92,WSW,256,1.0,5.0,81,0.00,,---,0.00,VWS V14.00,2013-02-24 01:09:00,
2013-02-23 20:12:00,27.1,22.1,29.92,West,263,1.0,5.0,81,0.00,,---,0.00,VWS V14.00,2013-02-24 01:12:00,
2013-02-23 20:14:00,27.1,22.1,29.92,West,271,2.0,7.0,81,0.00,,---,0.00,VWS V14.00,2013-02-24 01:14:00,
2013-02-23 20:15:00,27.1,22.1,29.92,West,274,3.0,7.0,81,0.00,,---,0.00,VWS V14.00,2013-02-24 01:15:00,
2013-02-23 20:20:00,27.1,22.1,29.92,West,268,2.0,7.0,81,0.00,,---,0.00,VWS V14.00,2013-02-24 01:20:00,
2013-02-23 20:21:00,27.1,22.1,29.92,West,264,3.0,7.0,81,0.00,,---,0.00,VWS V14.00,2013-02-24 01:21:00,
2013-02-23 20:22:00,27.1,22.1,29.92,West,265,3.0,7.0,81,0.00,,---,0.00,VWS V14.00,2013-02-24 01:22:00,
2013-02-23 20:26:00,27.1,22.1,29.92,West,272,4.0,7.0,81,0.00,,---,0.00,VWS V14.00,2013-02-24 01:26:00,
2013-02-23 20:27:00,27.1,22.1,29.92,West,273,3.0,7.0,81,0.00,,---,0.00,VWS V14.00,2013-02-24 01:27:00,
2013-02-23 20:29:00,27.1,22.1,29.92,WSW,253,2.0,4.0,81,0.00,,---,0.00,VWS V14.00,2013-02-24 01:29:00,
2013-02-23 20:31:00,27.1,22.1,29.92,West,276,3.0,5.0,81,0.00,,---,0.00,VWS V14.00,2013-02-24 01:31:00,
2013-02-23 20:32:00,27.1,22.1,29.92,West,272,4.0,8.0,81,0.00,,---,0.00,VWS V14.00,2013-02-24 01:32:00,
2013-02-23 20:34:00,27.1,22.1,29.92,West,268,3.0,10.0,81,0.00,,---,0.00,VWS V14.00,2013-02-24 01:34:00,
2013-02-23 20:36:00,27.1,22.1,29.92,West,269,3.0,10.0,81,0.00,,---,0.00,VWS V14.00,2013-02-24 01:36:00,
2013-02-23 20:39:00,27.0,22.0,29.92,West,265,2.0,10.0,81,0.00,,---,0.00,VWS V14.00,2013-02-24 01:39:00,
2013-02-23 20:41:00,27.0,22.2,29.92,West,268,4.0,10.0,82,0.00,,---,0.00,VWS V14.00,2013-02-24 01:41:00,
2013-02-23 20:42:00,27.0,22.2,29.92,West,275,2.0,10.0,82,0.00,,---,0.00,VWS V14.00,2013-02-24 01:42:00,
2013-02-23 20:44:00,27.0,22.2,29.92,West,261,2.0,10.0,82,0.00,,---,0.00,VWS V14.00,2013-02-24 01:44:00,
2013-02-23 20:45:00,27.0,22.2,29.92,West,265,2.0,10.0,82,0.00,,---,0.00,VWS V14.00,2013-02-24 01:45:00,
2013-02-23 20:46:00,27.0,22.2,29.92,West,267,1.0,10.0,82,0.00,,---,0.00,VWS V14.00,2013-02-24 01:46:00,
2013-02-23 20:47:00,27.0,22.2,29.92,West,271,2.0,10.0,82,0.00,,---,0.00,VWS V14.00,2013-02-24 01:47:00,
2013-02-23 20:49:00,27.0,22.2,29.92,WSW,254,2.0,10.0,82,0.00,,---,0.00,VWS V14.00,2013-02-24 01:49:00,
2013-02-23 20:52:00,27.0,22.2,29.93,West,268,4.0,10.0,82,0.00,,---,0.00,VWS V14.00,2013-02-24 01:52:00,
2013-02-23 20:53:00,27.0,22.2,29.93,West,273,6.0,10.0,82,0.00,,---,0.00,VWS V14.00,2013-02-24 01:53:00,
2013-02-23 20:54:00,27.0,22.2,29.93,West,268,2.0,10.0,82,0.00,,---,0.00,VWS V14.00,2013-02-24 01:54:00,
2013-02-23 20:55:00,26.9,22.1,29.93,West,268,3.0,10.0,82,0.00,,---,0.00,VWS V14.00,2013-02-24 01:55:00,
2013-02-23 20:58:00,26.9,22.1,29.93,West,260,4.0,10.0,82,0.00,,---,0.00,VWS V14.00,2013-02-24 01:58:00,
2013-02-23 20:59:00,26.9,22.1,29.92,WSW,252,2.0,10.0,82,0.00,,---,0.00,VWS V14.00,2013-02-24 01:59:00,
2013-02-23 21:01:00,26.9,22.1,29.92,West,263,3.0,10.0,82,0.00,,---,0.00,VWS V14.00,2013-02-24 02:01:00,
2013-02-23 21:03:00,26.9,22.1,29.92,WNW,282,4.0,10.0,82,0.00,,---,0.00,VWS V14.00,2013-02-24 02:03:00,
2013-02-23 21:04:00,26.9,22.1,29.92,West,265,3.0,10.0,82,0.00,,---,0.00,VWS V14.00,2013-02-24 02:04:00,
2013-02-23 21:06:00,26.9,22.1,29.92,WSW,248,3.0,10.0,82,0.00,,---,0.00,VWS V14.00,2013-02-24 02:06:00,
2013-02-23 21:08:00,26.9,22.1,29.92,WSW,257,3.0,10.0,82,0.00,,---,0.00,VWS V14.00,2013-02-24 02:08:00,
2013-02-23 21:09:00,26.8,22.3,29.92,WSW,255,2.0,10.0,83,0.00,,---,0.00,VWS V14.00,2013-02-24 02:09:00,
2013-02-23 21:11:00,26.9,22.4,29.92,WNW,292,5.0,10.0,83,0.00,,---,0.00,VWS V14.00,2013-02-24 02:11:00,
2013-02-23 21:16:00,26.9,22.4,29.92,West,259,3.0,10.0,83,0.00,,---,0.00,VWS V14.00,2013-02-24 02:16:00,
2013-02-23 21:19:00,26.9,22.4,29.92,WSW,241,2.0,10.0,83,0.00,,---,0.00,VWS V14.00,2013-02-24 02:19:00,
2013-02-23 21:20:00,26.9,22.4,29.92,WSW,240,1.0,10.0,83,0.00,,---,0.00,VWS V14.00,2013-02-24 02:20:00,
2013-02-23 21:21:00,26.9,22.4,29.92,WSW,240,0.0,10.0,83,0.00,,---,0.00,VWS V14.00,2013-02-24 02:21:00,
2013-02-23 21:22:00,26.9,22.4,29.92,WSW,241,1.0,10.0,83,0.00,,---,0.00,VWS V14.00,2013-02-24 02:22:00,
2013-02-23 21:24:00,26.9,22.4,29.92,WSW,248,1.0,10.0,83,0.00,,---,0.00,VWS V14.00,2013-02-24 02:24:00,
2013-02-23 21:27:00,26.8,22.3,29.91,WSW,238,2.0,10.0,83,0.00,,---,0.00,VWS V14.00,2013-02-24 02:27:00,
2013-02-23 21:28:00,26.9,22.4,29.91,West,265,2.0,10.0,83,0.00,,---,0.00,VWS V14.00,2013-02-24 02:28:00,
2013-02-23 21:30:00,26.8,22.3,29.91,SSW,209,1.0,6.0,83,0.00,,---,0.00,VWS V14.00,2013-02-24 02:30:00,
2013-02-23 21:34:00,26.9,22.4,29.92,WSW,245,1.0,6.0,83,0.00,,---,0.00,VWS V14.00,2013-02-24 02:34:00,
2013-02-23 21:35:00,26.8,22.3,29.92,WSW,245,1.0,6.0,83,0.00,,---,0.00,VWS V14.00,2013-02-24 02:35:00,
2013-02-23 21:36:00,26.9,22.4,29.92,West,260,1.0,6.0,83,0.00,,---,0.00,VWS V14.00,2013-02-24 02:36:00,
2013-02-23 21:39:00,26.8,22.3,29.92,WSW,256,3.0,6.0,83,0.00,,---,0.00,VWS V14.00,2013-02-24 02:39:00,
2013-02-23 21:41:00,26.8,22.3,29.92,WSW,257,0.0,6.0,83,0.00,,---,0.00,VWS V14.00,2013-02-24 02:41:00,
2013-02-23 21:43:00,26.8,22.0,29.92,WSW,258,2.0,6.0,82,0.00,,---,0.00,VWS V14.00,2013-02-24 02:43:00,
2013-02-23 21:45:00,26.9,22.4,29.92,WSW,246,1.0,9.0,83,0.00,,---,0.00,VWS V14.00,2013-02-24 02:45:00,
2013-02-23 21:48:00,26.9,22.4,29.92,WSW,257,2.0,10.0,83,0.00,,---,0.00,VWS V14.00,2013-02-24 02:48:00,
2013-02-23 21:49:00,26.9,22.4,29.92,WSW,252,0.0,10.0,83,0.00,,---,0.00,VWS V14.00,2013-02-24 02:49:00,
2013-02-23 21:50:00,26.9,22.4,29.91,West,271,2.0,10.0,83,0.00,,---,0.00,VWS V14.00,2013-02-24 02:50:00,
2013-02-23 21:51:00,26.9,22.4,29.91,WSW,244,2.0,10.0,83,0.00,,---,0.00,VWS V14.00,2013-02-24 02:51:00,
2013-02-23 21:54:00,26.9,22.4,29.92,West,263,1.0,10.0,83,0.00,,---,0.00,VWS V14.00,2013-02-24 02:54:00,
2013-02-23 21:55:00,26.8,22.0,29.92,WSW,254,1.0,10.0,82,0.00,,---,0.00,VWS V14.00,2013-02-24 02:55:00,
2013-02-23 21:56:00,26.9,22.1,29.92,WSW,245,2.0,10.0,82,0.00,,---,0.00,VWS V14.00,2013-02-24 02:56:00,
2013-02-23 21:58:00,26.8,22.0,29.92,WSW,248,1.0,10.0,82,0.00,,---,0.00,VWS V14.00,2013-02-24 02:58:00,
2013-02-23 21:59:00,26.9,22.1,29.91,West,275,9.0,9.0,82,0.00,,---,0.00,VWS V14.00,2013-02-24 02:59:00,
2013-02-23 22:00:00,26.9,22.1,29.92,WSW,249,3.0,9.0,82,0.00,,---,0.00,VWS V14.00,2013-02-24 03:00:00,
2013-02-23 22:01:00,26.9,22.1,29.92,West,265,0.0,9.0,82,0.00,,---,0.00,VWS V14.00,2013-02-24 03:01:00,
2013-02-23 22:03:00,26.9,22.1,29.92,West,263,1.0,9.0,82,0.00,,---,0.00,VWS V14.00,2013-02-24 03:03:00,
2013-02-23 22:04:00,26.9,22.1,29.91,West,265,4.0,9.0,82,0.00,,---,0.00,VWS V14.00,2013-02-24 03:04:00,
2013-02-23 22:06:00,26.9,22.1,29.91,West,277,2.0,9.0,82,0.00,,---,0.00,VWS V14.00,2013-02-24 03:06:00,
2013-02-23 22:07:00,26.9,22.1,29.91,WSW,254,3.0,9.0,82,0.00,,---,0.00,VWS V14.00,2013-02-24 03:07:00,
2013-02-23 22:08:00,26.9,22.1,29.91,West,276,0.0,9.0,82,0.00,,---,0.00,VWS V14.00,2013-02-24 03:08:00,
2013-02-23 22:09:00,26.9,22.1,29.91,West,261,1.0,9.0,82,0.00,,---,0.00,VWS V14.00,2013-02-24 03:09:00,
2013-02-23 22:12:00,26.9,22.1,29.91,West,272,1.0,9.0,82,0.00,,---,0.00,VWS V14.00,2013-02-24 03:12:00,
2013-02-23 22:13:00,26.9,22.1,29.91,West,279,5.0,9.0,82,0.00,,---,0.00,VWS V14.00,2013-02-24 03:13:00,
2013-02-23 22:15:00,26.9,22.4,29.91,West,273,2.0,9.0,83,0.00,,---,0.00,VWS V14.00,2013-02-24 03:15:00,
2013-02-23 22:17:00,26.9,22.4,29.91,West,270,4.0,9.0,83,0.00,,---,0.00,VWS V14.00,2013-02-24 03:17:00,
2013-02-23 22:18:00,26.9,22.4,29.91,West,273,4.0,9.0,83,0.00,,---,0.00,VWS V14.00,2013-02-24 03:18:00,
2013-02-23 22:19:00,26.9,22.4,29.91,West,265,3.0,9.0,83,0.00,,---,0.00,VWS V14.00,2013-02-24 03:19:00,
2013-02-23 22:20:00,26.9,22.4,29.91,West,273,3.0,9.0,83,0.00,,---,0.00,VWS V14.00,2013-02-24 03:20:00,
2013-02-23 22:24:00,26.9,22.4,29.91,West,261,3.0,9.0,83,0.00,,---,0.00,VWS V14.00,2013-02-24 03:24:00,
2013-02-23 22:25:00,26.9,22.4,29.91,West,274,5.0,9.0,83,0.00,,---,0.00,VWS V14.00,2013-02-24 03:25:00,
2013-02-23 22:27:00,26.9,22.4,29.91,West,273,4.0,9.0,83,0.00,,---,0.00,VWS V14.00,2013-02-24 03:27:00,
2013-02-23 22:29:00,26.9,22.4,29.91,West,260,3.0,6.0,83,0.00,,---,0.00,VWS V14.00,2013-02-24 03:29:00,
2013-02-23 22:30:00,26.9,22.4,29.91,West,260,1.0,6.0,83,0.00,,---,0.00,VWS V14.00,2013-02-24 03:30:00,
2013-02-23 22:32:00,26.9,22.4,29.91,West,275,4.0,7.0,83,0.00,,---,0.00,VWS V14.00,2013-02-24 03:32:00,
2013-02-23 22:35:00,26.9,22.4,29.91,WSW,250,4.0,7.0,83,0.00,,---,0.00,VWS V14.00,2013-02-24 03:35:00,
2013-02-23 22:36:00,27.0,22.5,29.91,WSW,256,2.0,7.0,83,0.00,,---,0.00,VWS V14.00,2013-02-24 03:36:00,
2013-02-23 22:37:00,26.9,22.4,29.91,West,260,2.0,7.0,83,0.00,,---,0.00,VWS V14.00,2013-02-24 03:37:00,
2013-02-23 22:40:00,26.9,22.4,29.91,WSW,252,1.0,10.0,83,0.00,,---,0.00,VWS V14.00,2013-02-24 03:40:00,
2013-02-23 22:41:00,27.0,22.5,29.91,WSW,248,1.0,10.0,83,0.00,,---,0.00,VWS V14.00,2013-02-24 03:41:00,
2013-02-23 22:42:00,26.9,22.4,29.91,West,278,6.0,10.0,83,0.00,,---,0.00,VWS V14.00,2013-02-24 03:42:00,
2013-02-23 22:43:00,26.9,22.4,29.91,WSW,241,3.0,10.0,83,0.00,,---,0.00,VWS V14.00,2013-02-24 03:43:00,
2013-02-23 22:46:00,26.9,22.4,29.91,WNW,285,6.0,10.0,83,0.00,,---,0.00,VWS V14.00,2013-02-24 03:46:00,
2013-02-23 22:47:00,26.9,22.4,29.90,WNW,282,5.0,10.0,83,0.00,,---,0.00,VWS V14.00,2013-02-24 03:47:00,
2013-02-23 22:48:00,26.9,22.4,29.90,West,275,4.0,10.0,83,0.00,,---,0.00,VWS V14.00,2013-02-24 03:48:00,
2013-02-23 22:51:00,27.0,22.5,29.91,West,271,4.0,12.0,83,0.00,,---,0.00,VWS V14.00,2013-02-24 03:51:00,
2013-02-23 22:52:00,26.9,22.4,29.91,West,272,1.0,12.0,83,0.00,,---,0.00,VWS V14.00,2013-02-24 03:52:00,
2013-02-23 22:53:00,26.9,22.4,29.90,West,265,1.0,12.0,83,0.00,,---,0.00,VWS V14.00,2013-02-24 03:53:00,
2013-02-23 22:56:00,26.9,22.4,29.90,WSW,256,5.0,12.0,83,0.00,,---,0.00,VWS V14.00,2013-02-24 03:56:00,
2013-02-23 22:59:00,27.0,22.5,29.90,West,271,5.0,6.0,83,0.00,,---,0.00,VWS V14.00,2013-02-24 03:59:00,
2013-02-23 23:00:00,27.0,22.5,29.90,West,272,2.0,6.0,83,0.00,,---,0.00,VWS V14.00,2013-02-24 04:00:00,
2013-02-23 23:01:00,27.0,22.5,29.90,West,271,0.0,6.0,83,0.00,,---,0.00,VWS V14.00,2013-02-24 04:01:00,
2013-02-23 23:04:00,27.0,22.5,29.91,West,273,6.0,12.0,83,0.00,,---,0.00,VWS V14.00,2013-02-24 04:04:00,
2013-02-23 23:06:00,27.0,22.5,29.90,West,281,11.0,12.0,83,0.00,,---,0.00,VWS V14.00,2013-02-24 04:06:00,
2013-02-23 23:07:00,27.0,22.5,29.90,West,267,6.0,12.0,83,0.00,,---,0.00,VWS V14.00,2013-02-24 04:07:00,
2013-02-23 23:09:00,27.0,22.5,29.90,WSW,250,3.0,12.0,83,0.00,,---,0.00,VWS V14.00,2013-02-24 04:09:00,
2013-02-23 23:11:00,27.0,22.5,29.90,West,267,3.0,12.0,83,0.00,,---,0.00,VWS V14.00,2013-02-24 04:11:00,
2013-02-23 23:13:00,27.0,22.5,29.90,West,277,9.0,12.0,83,0.00,,---,0.00,VWS V14.00,2013-02-24 04:13:00,
2013-02-23 23:14:00,27.0,22.5,29.90,West,274,4.0,12.0,83,0.00,,---,0.00,VWS V14.00,2013-02-24 04:14:00,
2013-02-23 23:16:00,27.1,22.6,29.90,West,263,2.0,12.0,83,0.00,,---,0.00,VWS V14.00,2013-02-24 04:16:00,
2013-02-23 23:17:00,27.0,22.2,29.90,West,268,3.0,12.0,82,0.00,,---,0.00,VWS V14.00,2013-02-24 04:17:00,
2013-02-23 23:18:00,27.1,22.4,29.90,West,269,5.0,12.0,82,0.00,,---,0.00,VWS V14.00,2013-02-24 04:18:00,
2013-02-23 23:21:00,27.1,22.4,29.90,West,271,3.0,12.0,82,0.00,,---,0.00,VWS V14.00,2013-02-24 04:21:00,
2013-02-23 23:22:00,27.1,22.4,29.90,West,271,2.0,12.0,82,0.00,,---,0.00,VWS V14.00,2013-02-24 04:22:00,
2013-02-23 23:24:00,27.1,22.4,29.90,West,273,5.0,12.0,82,0.00,,---,0.00,VWS V14.00,2013-02-24 04:24:00,
2013-02-23 23:26:00,27.1,22.4,29.90,West,273,4.0,12.0,82,0.00,,---,0.00,VWS V14.00,2013-02-24 04:26:00,
2013-02-23 23:27:00,27.1,22.4,29.90,WSW,256,3.0,12.0,82,0.00,,---,0.00,VWS V14.00,2013-02-24 04:27:00,
2013-02-23 23:30:00,27.1,22.4,29.90,West,269,3.0,6.0,82,0.00,,---,0.00,VWS V14.00,2013-02-24 04:30:00,
2013-02-23 23:31:00,27.1,22.4,29.90,West,280,0.0,9.0,82,0.00,,---,0.00,VWS V14.00,2013-02-24 04:31:00,
2013-02-23 23:33:00,27.1,22.4,29.90,West,276,4.0,9.0,82,0.00,,---,0.00,VWS V14.00,2013-02-24 04:33:00,
2013-02-23 23:34:00,27.1,22.4,29.90,WSW,253,0.0,9.0,82,0.00,,---,0.00,VWS V14.00,2013-02-24 04:34:00,
2013-02-23 23:37:00,27.1,22.4,29.90,West,265,4.0,9.0,82,0.00,,---,0.00,VWS V14.00,2013-02-24 04:37:00,
2013-02-23 23:38:00,27.1,22.4,29.90,West,263,3.0,9.0,82,0.00,,---,0.00,VWS V14.00,2013-02-24 04:38:00,
2013-02-23 23:39:00,27.1,22.4,29.90,West,269,5.0,9.0,82,0.00,,---,0.00,VWS V14.00,2013-02-24 04:39:00,
2013-02-23 23:40:00,27.1,22.4,29.90,West,272,4.0,9.0,82,0.00,,---,0.00,VWS V14.00,2013-02-24 04:40:00,
2013-02-23 23:43:00,27.0,22.2,29.90,West,264,3.0,9.0,82,0.00,,---,0.00,VWS V14.00,2013-02-24 04:43:00,
2013-02-23 23:44:00,27.1,22.4,29.90,West,276,2.0,9.0,82,0.00,,---,0.00,VWS V14.00,2013-02-24 04:44:00,
2013-02-23 23:46:00,27.1,22.4,29.90,West,265,4.0,9.0,82,0.00,,---,0.00,VWS V14.00,2013-02-24 04:46:00,
2013-02-23 23:48:00,27.1,22.4,29.90,West,271,2.0,13.0,82,0.00,,---,0.00,VWS V14.00,2013-02-24 04:48:00,
2013-02-23 23:49:00,27.0,22.2,29.90,West,259,5.0,13.0,82,0.00,,---,0.00,VWS V14.00,2013-02-24 04:49:00,
2013-02-23 23:50:00,27.1,22.4,29.90,West,263,3.0,13.0,82,0.00,,---,0.00,VWS V14.00,2013-02-24 04:50:00,
2013-02-23 23:52:00,27.1,22.4,29.90,West,276,12.0,13.0,82,0.00,,---,0.00,VWS V14.00,2013-02-24 04:52:00,
2013-02-23 23:56:00,27.1,22.4,29.90,West,264,3.0,13.0,82,0.00,,---,0.00,VWS V14.00,2013-02-24 04:56:00,
2013-02-23 23:57:00,27.1,22.4,29.90,West,273,10.0,13.0,82,0.00,,---,0.00,VWS V14.00,2013-02-24 04:57:00,
2013-02-23 23:58:00,27.1,22.4,29.90,West,263,4.0,13.0,82,0.00,,---,0.00,VWS V14.00,2013-02-24 04:58:00,